| time (UTC) | temp F | wind direction | speed MPH | gust MPH | rain 1hr in | rain 24hr in | rain mn in | humidity % | barometer mb |
| 20260509082127 | 55 | 184 | 0.0 | 1.0 | 0.00 | 0.00 | 0.00 | 76 | 1019.3 |
| 20260509082047 | 55 | 177 | 0.0 | 1.0 | 0.00 | 0.00 | 0.00 | 76 | 1019.2 |
| 20260509082028 | 55 | 174 | 0.0 | 1.0 | 0.00 | 0.00 | 0.00 | 76 | 1019.3 |
| 20260509081927 | 55 | 180 | 0.0 | 1.0 | 0.00 | 0.00 | 0.00 | 77 | 1019.2 |
| 20260509081902 | 54 | 179 | 0.0 | 1.0 | 0.00 | 0.00 | 0.00 | 76 | 1019.4 |
| 20260509081846 | 54 | 169 | 0.0 | 1.0 | 0.00 | 0.00 | 0.00 | 76 | 1019.5 |
| 20260509081548 | 55 | 116 | 0.0 | 1.0 | 0.00 | 0.00 | 0.00 | 76 | 1019.4 |
| 20260509081528 | 55 | 146 | 0.0 | 1.0 | 0.00 | 0.00 | 0.00 | 77 | 1019.4 |
| 20260509081428 | 55 | 171 | 0.0 | 1.0 | 0.00 | 0.00 | 0.00 | 77 | 1019.3 |
| 20260509081328 | 55 | 167 | 0.0 | 1.0 | 0.00 | 0.00 | 0.00 | 76 | 1019.4 |
| 20260509081228 | 55 | 60 | 0.0 | 1.0 | 0.00 | 0.00 | 0.00 | 76 | 1019.3 |
| 20260509081127 | 55 | 163 | 0.0 | 1.0 | 0.00 | 0.00 | 0.00 | 76 | 1019.3 |
| 20260509081048 | 55 | 182 | 0.0 | 1.0 | 0.00 | 0.00 | 0.00 | 76 | 1019.3 |
| 20260509081028 | 55 | 172 | 0.0 | 1.0 | 0.00 | 0.00 | 0.00 | 76 | 1019.4 |
| 20260509080927 | 55 | 173 | 0.0 | 1.0 | 0.00 | 0.00 | 0.00 | 76 | 1019.3 |
| 20260509080827 | 55 | 108 | 0.0 | 1.0 | 0.00 | 0.00 | 0.00 | 76 | 1019.5 |
| 20260509080727 | 55 | 184 | 0.0 | 1.0 | 0.00 | 0.00 | 0.00 | 76 | 1019.1 |
| 20260509080654 | 54 | 172 | 0.0 | 1.0 | 0.00 | 0.00 | 0.00 | 76 | 1019.3 |
| 20260509080647 | 55 | 178 | 0.0 | 1.0 | 0.00 | 0.00 | 0.00 | 76 | 1019.2 |
| 20260509080633 | 55 | 210 | 0.0 | 1.0 | 0.00 | 0.00 | 0.00 | 76 | 1019.2 |
| 20260509080625 | 55 | 194 | 0.0 | 1.0 | 0.00 | 0.00 | 0.00 | 77 | 1019.3 |
| 20260509080609 | 55 | 171 | 0.0 | 1.0 | 0.00 | 0.00 | 0.00 | 78 | 1019.3 |
| 20260509080554 | 55 | 169 | 0.0 | 1.0 | 0.00 | 0.00 | 0.00 | 77 | 1019.3 |
| 20260509080538 | 54 | 159 | 0.0 | 1.0 | 0.00 | 0.00 | 0.00 | 77 | 1019.5 |
| 20260509080027 | 54 | 160 | 0.0 | 1.0 | 0.00 | 0.00 | 0.00 | 76 | 1019.5 |
| 20260509075927 | 54 | 167 | 0.0 | 1.0 | 0.00 | 0.00 | 0.00 | 76 | 1019.2 |
| 20260509075827 | 55 | 101 | 0.0 | 1.0 | 0.00 | 0.00 | 0.00 | 76 | 1019.5 |
| 20260509075727 | 55 | 179 | 0.0 | 1.0 | 0.00 | 0.00 | 0.00 | 76 | 1019.3 |
| 20260509075627 | 55 | 165 | 0.0 | 1.0 | 0.00 | 0.00 | 0.00 | 75 | 1019.3 |
| 20260509075548 | 55 | 127 | 0.0 | 1.0 | 0.00 | 0.00 | 0.00 | 75 | 1019.6 |
| 20260509075527 | 55 | 183 | 0.0 | 1.0 | 0.00 | 0.00 | 0.00 | 75 | 1019.4 |
| 20260509075426 | 55 | 179 | 0.0 | 1.0 | 0.00 | 0.00 | 0.00 | 76 | 1019.2 |
| 20260509075405 | 55 | 177 | 0.0 | 1.0 | 0.00 | 0.00 | 0.00 | 75 | 1019.5 |
| 20260509075350 | 55 | 170 | 0.0 | 1.0 | 0.00 | 0.00 | 0.00 | 76 | 1019.4 |
| 20260509075335 | 55 | 159 | 0.0 | 1.0 | 0.00 | 0.00 | 0.00 | 76 | 1019.3 |
| 20260509075319 | 55 | 185 | 0.0 | 1.0 | 0.00 | 0.00 | 0.00 | 76 | 1019.3 |
| 20260509075050 | 55 | 73 | 0.0 | 0.0 | 0.00 | 0.00 | 0.00 | 77 | 1019.5 |
| 20260509074742 | 56 | 152 | 0.0 | 1.0 | 0.00 | 0.00 | 0.00 | 76 | 1019.1 |
| 20260509074736 | 55 | 177 | 0.0 | 0.0 | 0.00 | 0.00 | 0.00 | 78 | 1019.4 |
| 20260509074720 | 55 | 174 | 0.0 | 4.0 | 0.00 | 0.00 | 0.00 | 77 | 1019.3 |
| 20260509074705 | 55 | 170 | 0.0 | 4.0 | 0.00 | 0.00 | 0.00 | 77 | 1019.3 |
| 20260509074658 | 55 | 154 | 0.0 | 4.0 | 0.00 | 0.00 | 0.00 | 77 | 1019.2 |
| 20260509074433 | 55 | 137 | 0.0 | 4.0 | 0.00 | 0.00 | 0.00 | 77 | 1018.9 |
| 20260509074418 | 55 | 182 | 0.0 | 4.0 | 0.00 | 0.00 | 0.00 | 77 | 1019.5 |
| 20260509074402 | 55 | 166 | 0.0 | 4.0 | 0.00 | 0.00 | 0.00 | 77 | 1019.3 |
| 20260509074347 | 55 | 174 | 0.0 | 4.0 | 0.00 | 0.00 | 0.00 | 77 | 1019.1 |
| 20260509074332 | 55 | 178 | 0.0 | 4.0 | 0.00 | 0.00 | 0.00 | 77 | 1019.1 |
| 20260509074059 | 55 | 155 | 0.0 | 4.0 | 0.00 | 0.00 | 0.00 | 76 | 1019.2 |
| 20260509074042 | 55 | 98 | 0.0 | 4.0 | 0.00 | 0.00 | 0.00 | 76 | 1019.3 |
| 20260509073806 | 55 | 180 | 0.0 | 1.0 | 0.00 | 0.00 | 0.00 | 77 | 1019.1 |
| 20260509073529 | 56 | 94 | 0.0 | 1.0 | 0.00 | 0.00 | 0.00 | 76 | 1019.3 |
| 20260509073428 | 56 | 144 | 0.0 | 1.0 | 0.00 | 0.00 | 0.00 | 76 | 1019.5 |
| 20260509073329 | 56 | 183 | 0.0 | 1.0 | 0.00 | 0.00 | 0.00 | 76 | 1019.4 |
| 20260509073243 | 56 | 190 | 0.0 | 1.0 | 0.00 | 0.00 | 0.00 | 77 | 1019.2 |
| 20260509073237 | 57 | 167 | 0.0 | 1.0 | 0.00 | 0.00 | 0.00 | 76 | 1019.3 |
| 20260509073232 | 56 | 138 | 0.0 | 1.0 | 0.00 | 0.00 | 0.00 | 76 | 1019.3 |
| 20260509073217 | 57 | 184 | 0.0 | 1.0 | 0.00 | 0.00 | 0.00 | 76 | 1019.1 |
| 20260509073204 | 57 | 149 | 0.0 | 1.0 | 0.00 | 0.00 | 0.00 | 76 | 1019.1 |
| 20260509073154 | 57 | 173 | 0.0 | 1.0 | 0.00 | 0.00 | 0.00 | 76 | 1019.4 |
| 20260509073138 | 57 | 170 | 0.0 | 1.0 | 0.00 | 0.00 | 0.00 | 76 | 1019.3 |
| 20260509073122 | 57 | 178 | 0.0 | 1.0 | 0.00 | 0.00 | 0.00 | 76 | 1019.2 |
| 20260509072844 | 57 | 177 | 0.0 | 1.0 | 0.00 | 0.00 | 0.00 | 76 | 1019.3 |
| 20260509072618 | 56 | 74 | 0.0 | 1.0 | 0.00 | 0.00 | 0.00 | 77 | 1019.1 |
| 20260509072603 | 56 | 181 | 0.0 | 1.0 | 0.00 | 0.00 | 0.00 | 77 | 1019.4 |
| 20260509072339 | 56 | 180 | 0.0 | 1.0 | 0.00 | 0.00 | 0.00 | 76 | 1019.3 |
| 20260509072323 | 56 | 123 | 0.0 | 1.0 | 0.00 | 0.00 | 0.00 | 76 | 1019.1 |
| 20260509072307 | 56 | 190 | 0.0 | 1.0 | 0.00 | 0.00 | 0.00 | 77 | 1019.2 |
| 20260509072026 | 56 | 188 | 0.0 | 1.0 | 0.00 | 0.00 | 0.00 | 77 | 1019.4 |
| 20260509071927 | 56 | 152 | 0.0 | 1.0 | 0.00 | 0.00 | 0.00 | 77 | 1019.1 |
| 20260509071827 | 56 | 138 | 0.0 | 1.0 | 0.00 | 0.00 | 0.00 | 76 | 1019.2 |
| 20260509071728 | 56 | 175 | 0.0 | 1.0 | 0.00 | 0.00 | 0.00 | 77 | 1019.2 |
| 20260509071627 | 56 | 174 | 0.0 | 1.0 | 0.00 | 0.00 | 0.00 | 77 | 1019.3 |
| 20260509071547 | 56 | 184 | 0.0 | 1.0 | 0.00 | 0.00 | 0.00 | 77 | 1019.3 |
| 20260509071527 | 56 | 174 | 0.0 | 1.0 | 0.00 | 0.00 | 0.00 | 77 | 1019.3 |
| 20260509071432 | 56 | 171 | 0.0 | 1.0 | 0.00 | 0.00 | 0.00 | 76 | 1019.3 |
| 20260509071403 | 56 | 180 | 0.0 | 1.0 | 0.00 | 0.00 | 0.00 | 76 | 1019.2 |
| 20260509071347 | 56 | 185 | 0.0 | 1.0 | 0.00 | 0.00 | 0.00 | 76 | 1019.1 |
| 20260509071049 | 55 | 182 | 0.0 | 1.0 | 0.00 | 0.00 | 0.00 | 77 | 1019.1 |
| 20260509071028 | 55 | 176 | 0.0 | 1.0 | 0.00 | 0.00 | 0.00 | 77 | 1019.1 |
| 20260509070926 | 55 | 175 | 0.0 | 1.0 | 0.00 | 0.00 | 0.00 | 77 | 1019.2 |
| 20260509070830 | 55 | 75 | 0.0 | 1.0 | 0.00 | 0.00 | 0.00 | 77 | 1019.2 |
| 20260509070812 | 55 | 167 | 0.0 | 1.0 | 0.00 | 0.00 | 0.00 | 76 | 1019.1 |
| 20260509070755 | 55 | 184 | 0.0 | 1.0 | 0.00 | 0.00 | 0.00 | 76 | 1019.3 |
| 20260509070741 | 55 | 181 | 0.0 | 1.0 | 0.00 | 0.00 | 0.00 | 76 | 1019.3 |
| 20260509070506 | 55 | 177 | 0.0 | 1.0 | 0.00 | 0.00 | 0.00 | 76 | 1019.1 |
| 20260509070448 | 55 | 170 | 0.0 | 1.0 | 0.00 | 0.00 | 0.00 | 77 | 1019.2 |
| 20260509070127 | 55 | 178 | 0.0 | 1.0 | 0.00 | 0.00 | 0.00 | 77 | 1019.2 |
| 20260509070100 | 55 | 170 | 0.0 | 1.0 | 0.00 | 0.00 | 0.00 | 77 | 1019.2 |
| 20260509070027 | 55 | 173 | 0.0 | 1.0 | 0.00 | 0.00 | 0.00 | 77 | 1019.2 |
| 20260509065927 | 55 | 152 | 0.0 | 1.0 | 0.00 | 0.00 | 0.00 | 77 | 1019.0 |
| 20260509065827 | 55 | 121 | 0.0 | 2.0 | 0.00 | 0.00 | 0.00 | 77 | 1018.9 |
| 20260509065728 | 54 | 176 | 0.0 | 2.0 | 0.00 | 0.00 | 0.00 | 77 | 1019.0 |
| 20260509065629 | 54 | 196 | 0.0 | 2.0 | 0.00 | 0.00 | 0.00 | 77 | 1019.0 |
| 20260509065547 | 54 | 164 | 0.0 | 2.0 | 0.00 | 0.00 | 0.00 | 77 | 1019.0 |
| 20260509065527 | 54 | 139 | 0.0 | 2.0 | 0.00 | 0.00 | 0.00 | 77 | 1019.1 |
| 20260509065505 | 54 | 178 | 0.0 | 2.0 | 0.00 | 0.00 | 0.00 | 77 | 1019.2 |
| 20260509065448 | 55 | 177 | 0.0 | 2.0 | 0.00 | 0.00 | 0.00 | 78 | 1018.9 |
| 20260509065432 | 55 | 157 | 0.0 | 2.0 | 0.00 | 0.00 | 0.00 | 78 | 1019.1 |
| 20260509065157 | 55 | 139 | 0.0 | 2.0 | 0.00 | 0.00 | 0.00 | 78 | 1019.1 |
| 20260509065147 | 55 | 172 | 0.0 | 2.0 | 0.00 | 0.00 | 0.00 | 78 | 1019.0 |
| 20260509064827 | 55 | 162 | 0.0 | 1.0 | 0.00 | 0.00 | 0.00 | 78 | 1019.2 |
| 20260509064810 | 55 | 139 | 0.0 | 1.0 | 0.00 | 0.00 | 0.00 | 78 | 1019.1 |
| 20260509064755 | 55 | 165 | 0.0 | 0.0 | 0.00 | 0.00 | 0.00 | 78 | 1019.2 |
| 20260509064741 | 55 | 175 | 0.0 | 0.0 | 0.00 | 0.00 | 0.00 | 78 | 1019.2 |
| 20260509064427 | 55 | 167 | 0.0 | 0.0 | 0.00 | 0.00 | 0.00 | 79 | 1019.1 |
| 20260509064326 | 55 | 176 | 0.0 | 0.0 | 0.00 | 0.00 | 0.00 | 78 | 1019.0 |
| 20260509064227 | 55 | 176 | 0.0 | 1.0 | 0.00 | 0.00 | 0.00 | 79 | 1019.3 |
| 20260509064150 | 55 | 175 | 0.0 | 2.0 | 0.00 | 0.00 | 0.00 | 79 | 1019.0 |
| 20260509064143 | 55 | 176 | 0.0 | 2.0 | 0.00 | 0.00 | 0.00 | 79 | 1019.3 |
| 20260509064129 | 55 | 172 | 0.0 | 2.0 | 0.00 | 0.00 | 0.00 | 78 | 1019.1 |
| 20260509064119 | 55 | 169 | 0.0 | 2.0 | 0.00 | 0.00 | 0.00 | 78 | 1019.2 |
| 20260509064103 | 55 | 149 | 0.0 | 2.0 | 0.00 | 0.00 | 0.00 | 78 | 1019.0 |
| 20260509063838 | 55 | 176 | 0.0 | 2.0 | 0.00 | 0.00 | 0.00 | 79 | 1019.1 |
| 20260509063823 | 55 | 175 | 0.0 | 2.0 | 0.00 | 0.00 | 0.00 | 79 | 1019.1 |
| 20260509063807 | 55 | 175 | 0.0 | 2.0 | 0.00 | 0.00 | 0.00 | 79 | 1019.0 |
| 20260509063527 | 55 | 175 | 0.0 | 2.0 | 0.00 | 0.00 | 0.00 | 79 | 1019.0 |
| 20260509063427 | 55 | 116 | 0.0 | 2.0 | 0.00 | 0.00 | 0.00 | 79 | 1019.2 |
| 20260509063326 | 55 | 106 | 0.0 | 2.0 | 0.00 | 0.00 | 0.00 | 77 | 1019.1 |
| 20260509063227 | 56 | 67 | 0.0 | 2.0 | 0.00 | 0.00 | 0.00 | 77 | 1019.0 |
| 20260509063127 | 56 | 184 | 0.0 | 1.0 | 0.00 | 0.00 | 0.00 | 77 | 1019.0 |
| 20260509063048 | 56 | 168 | 0.0 | 1.0 | 0.00 | 0.00 | 0.00 | 77 | 1019.0 |
| 20260509063028 | 56 | 163 | 0.0 | 1.0 | 0.00 | 0.00 | 0.00 | 76 | 1019.2 |
| 20260509062927 | 56 | 184 | 0.0 | 1.0 | 0.00 | 0.00 | 0.00 | 77 | 1019.0 |
| 20260509062827 | 56 | 186 | 0.0 | 2.0 | 0.00 | 0.00 | 0.00 | 77 | 1018.7 |
| 20260509062816 | 55 | 121 | 0.0 | 2.0 | 0.00 | 0.00 | 0.00 | 77 | 1019.2 |
| 20260509062807 | 56 | 133 | 0.0 | 2.0 | 0.00 | 0.00 | 0.00 | 77 | 1019.0 |
| 20260509062750 | 56 | 163 | 0.0 | 2.0 | 0.00 | 0.00 | 0.00 | 77 | 1019.3 |
| 20260509062735 | 56 | 165 | 0.0 | 2.0 | 0.00 | 0.00 | 0.00 | 77 | 1019.3 |
| 20260509062728 | 55 | 163 | 0.0 | 2.0 | 0.00 | 0.00 | 0.00 | 76 | 1019.1 |
| 20260509062503 | 55 | 158 | 0.0 | 2.0 | 0.00 | 0.00 | 0.00 | 77 | 1018.9 |
| 20260509062447 | 55 | 94 | 0.0 | 2.0 | 0.00 | 0.00 | 0.00 | 77 | 1019.1 |
| 20260509062431 | 55 | 183 | 0.0 | 2.0 | 0.00 | 0.00 | 0.00 | 77 | 1019.0 |
| 20260509062415 | 55 | 105 | 0.0 | 2.0 | 0.00 | 0.00 | 0.00 | 77 | 1019.2 |
| 20260509062147 | 55 | 176 | 0.0 | 2.0 | 0.00 | 0.00 | 0.00 | 77 | 1019.2 |
| 20260509061826 | 55 | 173 | 0.0 | 0.0 | 0.00 | 0.00 | 0.00 | 77 | 1019.1 |
| 20260509061726 | 55 | 158 | 0.0 | 0.0 | 0.00 | 0.00 | 0.00 | 78 | 1019.2 |
| 20260509061626 | 55 | 160 | 0.0 | 0.0 | 0.00 | 0.00 | 0.00 | 78 | 1019.3 |
| 20260509061546 | 55 | 166 | 0.0 | 0.0 | 0.00 | 0.00 | 0.00 | 78 | 1019.3 |
| 20260509061526 | 55 | 141 | 0.0 | 0.0 | 0.00 | 0.00 | 0.00 | 78 | 1019.2 |
| 20260509061426 | 56 | 162 | 0.0 | 0.0 | 0.00 | 0.00 | 0.00 | 78 | 1019.1 |
| 20260509061343 | 56 | 183 | 0.0 | 0.0 | 0.00 | 0.00 | 0.00 | 78 | 1018.8 |
| 20260509061337 | 56 | 163 | 0.0 | 0.0 | 0.00 | 0.00 | 0.00 | 78 | 1019.2 |
| 20260509061322 | 56 | 176 | 0.0 | 0.0 | 0.00 | 0.00 | 0.00 | 78 | 1019.1 |
| 20260509061305 | 56 | 181 | 0.0 | 0.0 | 0.00 | 0.00 | 0.00 | 78 | 1018.8 |
| 20260509061026 | 56 | 183 | 0.0 | 0.0 | 0.00 | 0.00 | 0.00 | 78 | 1018.8 |
| 20260509061001 | 57 | 182 | 0.0 | 0.0 | 0.00 | 0.00 | 0.00 | 78 | 1019.2 |
| 20260509060946 | 57 | 161 | 0.0 | 0.0 | 0.00 | 0.00 | 0.00 | 77 | 1019.0 |
| 20260509060626 | 56 | 192 | 0.0 | 0.0 | 0.00 | 0.00 | 0.00 | 79 | 1019.1 |
| 20260509060547 | 56 | 192 | 0.0 | 0.0 | 0.00 | 0.00 | 0.00 | 79 | 1019.1 |
| 20260509060526 | 56 | 192 | 0.0 | 0.0 | 0.00 | 0.00 | 0.00 | 79 | 1019.1 |
| 20260509060426 | 56 | 194 | 0.0 | 0.0 | 0.00 | 0.00 | 0.00 | 80 | 1019.1 |
| 20260509060403 | 55 | 186 | 0.0 | 0.0 | 0.00 | 0.00 | 0.00 | 80 | 1019.1 |
| 20260509060347 | 55 | 198 | 0.0 | 0.0 | 0.00 | 0.00 | 0.00 | 81 | 1019.0 |
| 20260509060059 | 54 | 239 | 0.0 | 1.0 | 0.00 | 0.00 | 0.00 | 82 | 1019.1 |
| 20260509060026 | 54 | 196 | 0.0 | 1.0 | 0.00 | 0.00 | 0.00 | 82 | 1019.2 |
| 20260509055933 | 52 | 179 | 0.0 | 0.0 | 0.00 | 0.00 | 0.00 | 89 | 1019.2 |
| 20260509055927 | 53 | 181 | 0.0 | 1.0 | 0.00 | 0.00 | 0.00 | 83 | 1019.0 |
| 20260509055912 | 53 | 178 | 0.0 | 1.0 | 0.00 | 0.00 | 0.00 | 83 | 1019.1 |
| 20260509055856 | 53 | 175 | 0.0 | 1.0 | 0.00 | 0.00 | 0.00 | 83 | 1019.1 |
| 20260509055841 | 53 | 162 | 0.0 | 1.0 | 0.00 | 0.00 | 0.00 | 84 | 1019.2 |
| 20260509055826 | 53 | 175 | 0.0 | 1.0 | 0.00 | 0.00 | 0.00 | 84 | 1019.2 |
| 20260509055558 | 53 | 147 | 0.0 | 1.0 | 0.00 | 0.00 | 0.00 | 84 | 1019.2 |
| 20260509055543 | 53 | 163 | 0.0 | 1.0 | 0.00 | 0.00 | 0.00 | 85 | 1019.2 |
| 20260509055307 | 53 | 152 | 0.0 | 0.0 | 0.00 | 0.00 | 0.00 | 86 | 1019.2 |
| 20260509055251 | 53 | 143 | 0.0 | 0.0 | 0.00 | 0.00 | 0.00 | 86 | 1019.2 |
| 20260509055241 | 53 | 164 | 0.0 | 0.0 | 0.00 | 0.00 | 0.00 | 86 | 1019.1 |
| 20260509055007 | 52 | 177 | 0.0 | 0.0 | 0.00 | 0.00 | 0.00 | 88 | 1019.1 |
| 20260509054951 | 52 | 173 | 0.0 | 0.0 | 0.00 | 0.00 | 0.00 | 88 | 1019.1 |
| 20260509054936 | 52 | 172 | 0.0 | 0.0 | 0.00 | 0.00 | 0.00 | 89 | 1019.2 |
| 20260509054709 | 51 | 179 | 0.0 | 0.0 | 0.00 | 0.00 | 0.00 | 89 | 1019.2 |
| 20260509054654 | 51 | 178 | 0.0 | 0.0 | 0.00 | 0.00 | 0.00 | 89 | 1019.1 |
| 20260509054114 | 50 | 178 | 0.0 | 0.0 | 0.00 | 0.00 | 0.00 | 89 | 1019.0 |
| 20260509054046 | 50 | 176 | 0.0 | 0.0 | 0.00 | 0.00 | 0.00 | 89 | 1019.0 |
| 20260509054014 | 50 | 168 | 0.0 | 0.0 | 0.00 | 0.00 | 0.00 | 89 | 1019.0 |
| 20260509053958 | 51 | 173 | 0.0 | 0.0 | 0.00 | 0.00 | 0.00 | 89 | 1019.2 |
| 20260509053949 | 50 | 167 | 0.0 | 0.0 | 0.00 | 0.00 | 0.00 | 89 | 1019.2 |
| 20260509053932 | 50 | 176 | 0.0 | 0.0 | 0.00 | 0.00 | 0.00 | 89 | 1019.2 |
| 20260509053917 | 50 | 176 | 0.0 | 0.0 | 0.00 | 0.00 | 0.00 | 89 | 1018.9 |
| 20260509053901 | 51 | 176 | 0.0 | 0.0 | 0.00 | 0.00 | 0.00 | 89 | 1019.2 |
| 20260509053634 | 51 | 145 | 0.0 | 0.0 | 0.00 | 0.00 | 0.00 | 89 | 1019.1 |
| 20260509053314 | 51 | 170 | 0.0 | 0.0 | 0.00 | 0.00 | 0.00 | 89 | 1019.0 |
| 20260509053214 | 50 | 180 | 0.0 | 0.0 | 0.00 | 0.00 | 0.00 | 89 | 1018.9 |
| 20260509053114 | 50 | 177 | 0.0 | 0.0 | 0.00 | 0.00 | 0.00 | 89 | 1019.0 |
| 20260509053046 | 50 | 174 | 0.0 | 0.0 | 0.00 | 0.00 | 0.00 | 89 | 1019.0 |
| 20260509053014 | 50 | 161 | 0.0 | 0.0 | 0.00 | 0.00 | 0.00 | 89 | 1019.3 |
| 20260509052915 | 50 | 176 | 0.0 | 0.0 | 0.00 | 0.00 | 0.00 | 89 | 1019.1 |
| 20260509052815 | 50 | 169 | 0.0 | 0.0 | 0.00 | 0.00 | 0.00 | 89 | 1019.1 |
| 20260509052714 | 50 | 174 | 0.0 | 0.0 | 0.00 | 0.00 | 0.00 | 89 | 1019.0 |
| 20260509052615 | 50 | 168 | 0.0 | 0.0 | 0.00 | 0.00 | 0.00 | 89 | 1019.2 |
| 20260509052546 | 50 | 169 | 0.0 | 0.0 | 0.00 | 0.00 | 0.00 | 89 | 1019.2 |
| 20260509052514 | 51 | 170 | 0.0 | 0.0 | 0.00 | 0.00 | 0.00 | 89 | 1019.1 |
| 20260509052414 | 51 | 178 | 0.0 | 0.0 | 0.00 | 0.00 | 0.00 | 89 | 1019.0 |
| 20260509052314 | 51 | 177 | 0.0 | 0.0 | 0.00 | 0.00 | 0.00 | 90 | 1019.1 |
| 20260509052214 | 51 | 157 | 0.0 | 0.0 | 0.00 | 0.00 | 0.00 | 90 | 1019.1 |
| 20260509052114 | 50 | 175 | 0.0 | 0.0 | 0.00 | 0.00 | 0.00 | 90 | 1019.1 |
| 20260509052046 | 50 | 174 | 0.0 | 0.0 | 0.00 | 0.00 | 0.00 | 90 | 1019.1 |
| 20260509052014 | 50 | 172 | 0.0 | 0.0 | 0.00 | 0.00 | 0.00 | 90 | 1019.1 |
| 20260509051914 | 50 | 166 | 0.0 | 0.0 | 0.00 | 0.00 | 0.00 | 90 | 1019.1 |
| 20260509051814 | 50 | 175 | 0.0 | 0.0 | 0.00 | 0.00 | 0.00 | 91 | 1019.2 |
| 20260509051714 | 50 | 176 | 0.0 | 0.0 | 0.00 | 0.00 | 0.00 | 91 | 1019.0 |
| 20260509051614 | 50 | 177 | 0.0 | 0.0 | 0.00 | 0.00 | 0.00 | 91 | 1018.9 |
| 20260509051547 | 50 | 177 | 0.0 | 0.0 | 0.00 | 0.00 | 0.00 | 91 | 1018.9 |
| 20260509051514 | 50 | 175 | 0.0 | 0.0 | 0.00 | 0.00 | 0.00 | 91 | 1019.0 |
| 20260509051414 | 50 | 174 | 0.0 | 0.0 | 0.00 | 0.00 | 0.00 | 91 | 1019.2 |
| 20260509051314 | 50 | 164 | 0.0 | 0.0 | 0.00 | 0.00 | 0.00 | 91 | 1019.2 |
| 20260509051214 | 50 | 168 | 0.0 | 0.0 | 0.00 | 0.00 | 0.00 | 91 | 1019.1 |
| 20260509051114 | 50 | 171 | 0.0 | 0.0 | 0.00 | 0.00 | 0.00 | 91 | 1019.4 |
| 20260509051047 | 50 | 165 | 0.0 | 0.0 | 0.00 | 0.00 | 0.00 | 91 | 1019.4 |
| 20260509051014 | 50 | 178 | 0.0 | 0.0 | 0.00 | 0.00 | 0.00 | 91 | 1019.1 |
| 20260509050914 | 50 | 180 | 0.0 | 0.0 | 0.00 | 0.00 | 0.00 | 91 | 1019.3 |
| 20260509050814 | 50 | 183 | 0.0 | 0.0 | 0.00 | 0.00 | 0.00 | 91 | 1019.1 |
| 20260509050714 | 50 | 183 | 0.0 | 0.0 | 0.00 | 0.00 | 0.00 | 91 | 1019.1 |
| 20260509050658 | 50 | 183 | 0.0 | 0.0 | 0.00 | 0.00 | 0.00 | 91 | 1019.2 |
| 20260509050645 | 50 | 182 | 0.0 | 0.0 | 0.00 | 0.00 | 0.00 | 91 | 1019.2 |
| 20260509050635 | 50 | 186 | 0.0 | 0.0 | 0.00 | 0.00 | 0.00 | 91 | 1019.1 |
| 20260509050351 | 50 | 186 | 0.0 | 0.0 | 0.00 | 0.00 | 0.00 | 92 | 1019.2 |
| 20260509050335 | 50 | 185 | 0.0 | 0.0 | 0.00 | 0.00 | 0.00 | 91 | 1018.9 |
| 20260509050319 | 50 | 185 | 0.0 | 0.0 | 0.00 | 0.00 | 0.00 | 91 | 1018.9 |
| 20260509050305 | 50 | 185 | 0.0 | 0.0 | 0.00 | 0.00 | 0.00 | 92 | 1018.9 |
| 20260509050254 | 50 | 186 | 0.0 | 0.0 | 0.00 | 0.00 | 0.00 | 92 | 1018.9 |
| 20260509045714 | 49 | 186 | 0.0 | 0.0 | 0.00 | 0.00 | 0.00 | 92 | 1019.1 |
| 20260509045644 | 49 | 184 | 0.0 | 0.0 | 0.00 | 0.00 | 0.00 | 92 | 1018.8 |
| 20260509045631 | 49 | 184 | 0.0 | 0.0 | 0.00 | 0.00 | 0.00 | 92 | 1018.8 |
| 20260509045622 | 49 | 185 | 0.0 | 0.0 | 0.00 | 0.00 | 0.00 | 92 | 1018.9 |
| 20260509045339 | 49 | 186 | 0.0 | 0.0 | 0.00 | 0.00 | 0.00 | 92 | 1019.1 |
| 20260509045322 | 49 | 185 | 0.0 | 0.0 | 0.00 | 0.00 | 0.00 | 92 | 1018.8 |
| 20260509045046 | 49 | 185 | 0.0 | 0.0 | 0.00 | 0.00 | 0.00 | 92 | 1018.8 |
| 20260509045002 | 49 | 184 | 0.0 | 0.0 | 0.00 | 0.00 | 0.00 | 92 | 1019.0 |
| 20260509044902 | 49 | 187 | 0.0 | 0.0 | 0.00 | 0.00 | 0.00 | 92 | 1018.8 |
| 20260509044837 | 49 | 186 | 0.0 | 0.0 | 0.00 | 0.00 | 0.00 | 92 | 1018.9 |
| 20260509044821 | 49 | 186 | 0.0 | 0.0 | 0.00 | 0.00 | 0.00 | 92 | 1018.8 |
| 20260509044546 | 49 | 186 | 0.0 | 0.0 | 0.00 | 0.00 | 0.00 | 92 | 1019.0 |
| 20260509044502 | 49 | 186 | 0.0 | 0.0 | 0.00 | 0.00 | 0.00 | 92 | 1018.9 |
| 20260509044402 | 49 | 186 | 0.0 | 0.0 | 0.00 | 0.00 | 0.00 | 92 | 1018.7 |
| 20260509044302 | 49 | 186 | 0.0 | 0.0 | 0.00 | 0.00 | 0.00 | 92 | 1019.0 |
| 20260509044203 | 49 | 186 | 0.0 | 0.0 | 0.00 | 0.00 | 0.00 | 92 | 1019.0 |
| 20260509044101 | 49 | 186 | 0.0 | 0.0 | 0.00 | 0.00 | 0.00 | 92 | 1019.1 |
| 20260509044046 | 49 | 186 | 0.0 | 0.0 | 0.00 | 0.00 | 0.00 | 92 | 1019.1 |
| 20260509044002 | 49 | 186 | 0.0 | 0.0 | 0.00 | 0.00 | 0.00 | 92 | 1018.9 |
| 20260509043902 | 49 | 186 | 0.0 | 0.0 | 0.00 | 0.00 | 0.00 | 92 | 1018.9 |
| 20260509043802 | 49 | 186 | 0.0 | 0.0 | 0.00 | 0.00 | 0.00 | 92 | 1019.1 |
| 20260509043702 | 49 | 186 | 0.0 | 0.0 | 0.00 | 0.00 | 0.00 | 92 | 1019.1 |
| 20260509043546 | 49 | 186 | 0.0 | 0.0 | 0.00 | 0.00 | 0.00 | 92 | 1019.1 |
| 20260509043523 | 49 | 186 | 0.0 | 0.0 | 0.00 | 0.00 | 0.00 | 92 | 1018.9 |
| 20260509043203 | 49 | 186 | 0.0 | 0.0 | 0.00 | 0.00 | 0.00 | 92 | 1019.0 |
| 20260509043103 | 49 | 185 | 0.0 | 0.0 | 0.00 | 0.00 | 0.00 | 92 | 1019.0 |
| 20260509043046 | 49 | 185 | 0.0 | 0.0 | 0.00 | 0.00 | 0.00 | 92 | 1019.0 |
| 20260509043002 | 49 | 185 | 0.0 | 0.0 | 0.00 | 0.00 | 0.00 | 92 | 1018.9 |
| 20260509042902 | 49 | 185 | 0.0 | 0.0 | 0.00 | 0.00 | 0.00 | 92 | 1018.9 |
| 20260509042838 | 49 | 185 | 0.0 | 0.0 | 0.00 | 0.00 | 0.00 | 91 | 1019.1 |
| 20260509042823 | 49 | 185 | 0.0 | 0.0 | 0.00 | 0.00 | 0.00 | 92 | 1019.0 |
| 20260509042546 | 49 | 185 | 0.0 | 0.0 | 0.00 | 0.00 | 0.00 | 92 | 1019.0 |
| 20260509042503 | 49 | 185 | 0.0 | 0.0 | 0.00 | 0.00 | 0.00 | 92 | 1019.1 |
| 20260509042403 | 49 | 185 | 0.0 | 0.0 | 0.00 | 0.00 | 0.00 | 92 | 1019.2 |
| 20260509042343 | 49 | 182 | 0.0 | 0.0 | 0.00 | 0.00 | 0.00 | 92 | 1018.9 |
| 20260509042334 | 49 | 182 | 0.0 | 0.0 | 0.00 | 0.00 | 0.00 | 92 | 1018.9 |
| 20260509042318 | 49 | 182 | 0.0 | 0.0 | 0.00 | 0.00 | 0.00 | 92 | 1018.9 |
| 20260509042300 | 49 | 182 | 0.0 | 0.0 | 0.00 | 0.00 | 0.00 | 92 | 1018.9 |
| 20260509041950 | 49 | 182 | 0.0 | 0.0 | 0.00 | 0.00 | 0.00 | 92 | 1018.9 |
| 20260509041850 | 49 | 181 | 0.0 | 0.0 | 0.00 | 0.00 | 0.00 | 92 | 1018.8 |
| 20260509041751 | 49 | 181 | 0.0 | 0.0 | 0.00 | 0.00 | 0.00 | 92 | 1018.9 |
| 20260509041718 | 49 | 181 | 0.0 | 0.0 | 0.00 | 0.00 | 0.00 | 92 | 1018.9 |
| 20260509041656 | 49 | 179 | 0.0 | 0.0 | 0.00 | 0.00 | 0.00 | 91 | 1019.0 |
| 20260509041640 | 49 | 180 | 0.0 | 0.0 | 0.00 | 0.00 | 0.00 | 91 | 1019.0 |
| 20260509041626 | 49 | 180 | 0.0 | 0.0 | 0.00 | 0.00 | 0.00 | 91 | 1018.9 |
| 20260509041350 | 49 | 178 | 0.0 | 0.0 | 0.00 | 0.00 | 0.00 | 91 | 1018.8 |
| 20260509041328 | 49 | 178 | 0.0 | 0.0 | 0.00 | 0.00 | 0.00 | 91 | 1018.8 |
| 20260509041049 | 49 | 174 | 0.0 | 0.0 | 0.00 | 0.00 | 0.00 | 91 | 1018.7 |
| 20260509040814 | 48 | 178 | 0.0 | 0.0 | 0.00 | 0.00 | 0.00 | 91 | 1019.0 |
| 20260509040546 | 48 | 176 | 0.0 | 0.0 | 0.00 | 0.00 | 0.00 | 91 | 1019.0 |
| 20260509040521 | 49 | 174 | 0.0 | 0.0 | 0.00 | 0.00 | 0.00 | 91 | 1019.1 |
| 20260509040506 | 49 | 161 | 0.0 | 0.0 | 0.00 | 0.00 | 0.00 | 91 | 1018.9 |
| 20260509040230 | 49 | 180 | 0.0 | 0.0 | 0.00 | 0.00 | 0.00 | 91 | 1018.8 |
| 20260509040207 | 49 | 178 | 0.0 | 0.0 | 0.00 | 0.00 | 0.00 | 91 | 1018.7 |
| 20260509035847 | 48 | 175 | 0.0 | 0.0 | 0.00 | 0.00 | 0.00 | 91 | 1018.8 |
| 20260509035837 | 48 | 181 | 0.0 | 0.0 | 0.00 | 0.00 | 0.00 | 91 | 1018.8 |
| 20260509035827 | 48 | 151 | 0.0 | 0.0 | 0.00 | 0.00 | 0.00 | 91 | 1018.8 |
| 20260509035812 | 48 | 181 | 0.0 | 0.0 | 0.00 | 0.00 | 0.00 | 91 | 1018.7 |
| 20260509035755 | 48 | 181 | 0.0 | 0.0 | 0.00 | 0.00 | 0.00 | 91 | 1018.8 |
| 20260509035446 | 48 | 182 | 0.0 | 0.0 | 0.00 | 0.00 | 0.00 | 91 | 1018.9 |
| 20260509035346 | 48 | 178 | 0.0 | 0.0 | 0.00 | 0.00 | 0.00 | 91 | 1018.9 |
| 20260509035247 | 49 | 175 | 0.0 | 0.0 | 0.00 | 0.00 | 0.00 | 91 | 1018.9 |
| 20260509035231 | 49 | 173 | 0.0 | 0.0 | 0.00 | 0.00 | 0.00 | 90 | 1019.1 |
| 20260509035208 | 49 | 180 | 0.0 | 0.0 | 0.00 | 0.00 | 0.00 | 90 | 1018.8 |
| 20260509034846 | 49 | 178 | 0.0 | 0.0 | 0.00 | 0.00 | 0.00 | 90 | 1018.8 |
| 20260509034746 | 49 | 180 | 0.0 | 0.0 | 0.00 | 0.00 | 0.00 | 90 | 1018.8 |
| 20260509034646 | 49 | 178 | 0.0 | 0.0 | 0.00 | 0.00 | 0.00 | 90 | 1018.8 |
| 20260509034546 | 49 | 178 | 0.0 | 0.0 | 0.00 | 0.00 | 0.00 | 90 | 1018.8 |
| 20260509034523 | 49 | 178 | 0.0 | 0.0 | 0.00 | 0.00 | 0.00 | 90 | 1018.9 |
| 20260509034506 | 49 | 177 | 0.0 | 1.0 | 0.00 | 0.00 | 0.00 | 90 | 1018.8 |
| 20260509034146 | 49 | 185 | 0.0 | 1.0 | 0.00 | 0.00 | 0.00 | 90 | 1018.7 |
| 20260509034047 | 49 | 185 | 0.0 | 1.0 | 0.00 | 0.00 | 0.00 | 90 | 1018.9 |
| 20260509034024 | 49 | 190 | 0.0 | 1.0 | 0.00 | 0.00 | 0.00 | 89 | 1018.5 |
| 20260509034008 | 49 | 199 | 0.0 | 1.0 | 0.00 | 0.00 | 0.00 | 89 | 1018.9 |
| 20260509033648 | 49 | 199 | 0.0 | 1.0 | 0.00 | 0.00 | 0.00 | 89 | 1018.8 |
| 20260509033547 | 49 | 199 | 0.0 | 1.0 | 0.00 | 0.00 | 0.00 | 89 | 1018.8 |
| 20260509033446 | 49 | 198 | 0.0 | 1.0 | 0.00 | 0.00 | 0.00 | 90 | 1018.8 |
| 20260509033347 | 49 | 189 | 0.0 | 1.0 | 0.00 | 0.00 | 0.00 | 89 | 1018.5 |
| 20260509033246 | 49 | 189 | 0.0 | 1.0 | 0.00 | 0.00 | 0.00 | 89 | 1018.8 |
| 20260509033148 | 49 | 189 | 0.0 | 1.0 | 0.00 | 0.00 | 0.00 | 89 | 1018.8 |
| 20260509033047 | 49 | 189 | 0.0 | 1.0 | 0.00 | 0.00 | 0.00 | 89 | 1018.8 |
| 20260509032947 | 49 | 189 | 0.0 | 1.0 | 0.00 | 0.00 | 0.00 | 89 | 1018.5 |
| 20260509032846 | 49 | 187 | 0.0 | 1.0 | 0.00 | 0.00 | 0.00 | 90 | 1018.7 |
| 20260509032747 | 49 | 187 | 0.0 | 1.0 | 0.00 | 0.00 | 0.00 | 90 | 1018.7 |
| 20260509032646 | 49 | 187 | 0.0 | 1.0 | 0.00 | 0.00 | 0.00 | 90 | 1018.7 |
| 20260509032551 | 49 | 179 | 0.0 | 1.0 | 0.00 | 0.00 | 0.00 | 90 | 1018.5 |
| 20260509032530 | 49 | 187 | 0.0 | 0.0 | 0.00 | 0.00 | 0.00 | 89 | 1018.8 |
| 20260509032520 | 49 | 177 | 0.0 | 1.0 | 0.00 | 0.00 | 0.00 | 90 | 1018.4 |
| 20260509032505 | 49 | 174 | 0.0 | 1.0 | 0.00 | 0.00 | 0.00 | 89 | 1018.8 |
| 20260509032450 | 49 | 192 | 0.0 | 1.0 | 0.00 | 0.00 | 0.00 | 89 | 1018.7 |
| 20260509032435 | 49 | 188 | 0.0 | 0.0 | 0.00 | 0.00 | 0.00 | 89 | 1018.8 |
| 20260509032417 | 49 | 187 | 0.0 | 0.0 | 0.00 | 0.00 | 0.00 | 89 | 1018.8 |
| 20260509031846 | 49 | 187 | 0.0 | 0.0 | 0.00 | 0.00 | 0.00 | 89 | 1018.9 |
| 20260509031746 | 49 | 187 | 0.0 | 0.0 | 0.00 | 0.00 | 0.00 | 89 | 1018.8 |
| 20260509031646 | 49 | 187 | 0.0 | 0.0 | 0.00 | 0.00 | 0.00 | 89 | 1018.5 |
| 20260509031547 | 49 | 187 | 0.0 | 0.0 | 0.00 | 0.00 | 0.00 | 89 | 1018.5 |
| 20260509031435 | 49 | 186 | 0.0 | 0.0 | 0.00 | 0.00 | 0.00 | 89 | 1018.5 |
| 20260509031334 | 49 | 186 | 0.0 | 0.0 | 0.00 | 0.00 | 0.00 | 89 | 1018.7 |
| 20260509031234 | 49 | 186 | 0.0 | 0.0 | 0.00 | 0.00 | 0.00 | 89 | 1018.9 |
| 20260509031134 | 49 | 186 | 0.0 | 0.0 | 0.00 | 0.00 | 0.00 | 89 | 1018.5 |
| 20260509031036 | 49 | 186 | 0.0 | 0.0 | 0.00 | 0.00 | 0.00 | 89 | 1018.9 |
| 20260509030935 | 49 | 186 | 0.0 | 0.0 | 0.00 | 0.00 | 0.00 | 89 | 1018.8 |
| 20260509030834 | 49 | 187 | 0.0 | 0.0 | 0.00 | 0.00 | 0.00 | 89 | 1018.5 |
| 20260509030734 | 49 | 187 | 0.0 | 0.0 | 0.00 | 0.00 | 0.00 | 89 | 1019.0 |
| 20260509030633 | 49 | 187 | 0.0 | 0.0 | 0.00 | 0.00 | 0.00 | 89 | 1018.8 |
| 20260509030533 | 49 | 187 | 0.0 | 0.0 | 0.00 | 0.00 | 0.00 | 89 | 1019.0 |
| 20260509030434 | 49 | 187 | 0.0 | 0.0 | 0.00 | 0.00 | 0.00 | 89 | 1019.0 |
| 20260509030335 | 49 | 187 | 0.0 | 0.0 | 0.00 | 0.00 | 0.00 | 89 | 1018.7 |
| 20260509030234 | 49 | 187 | 0.0 | 0.0 | 0.00 | 0.00 | 0.00 | 89 | 1018.7 |
| 20260509030134 | 49 | 187 | 0.0 | 0.0 | 0.00 | 0.00 | 0.00 | 90 | 1018.8 |
| 20260509030035 | 49 | 187 | 0.0 | 0.0 | 0.00 | 0.00 | 0.00 | 90 | 1018.7 |
| 20260509025934 | 49 | 189 | 0.0 | 0.0 | 0.00 | 0.00 | 0.00 | 90 | 1018.8 |
| 20260509025834 | 49 | 189 | 0.0 | 0.0 | 0.00 | 0.00 | 0.00 | 90 | 1018.9 |
| 20260509025817 | 49 | 189 | 0.0 | 0.0 | 0.00 | 0.00 | 0.00 | 90 | 1018.8 |
| 20260509025801 | 49 | 189 | 0.0 | 0.0 | 0.00 | 0.00 | 0.00 | 90 | 1018.9 |
| 20260509025534 | 49 | 190 | 0.0 | 0.0 | 0.00 | 0.00 | 0.00 | 91 | 1018.8 |
| 20260509025511 | 49 | 190 | 0.0 | 0.0 | 0.00 | 0.00 | 0.00 | 91 | 1018.7 |
| 20260509025454 | 49 | 190 | 0.0 | 0.0 | 0.00 | 0.00 | 0.00 | 91 | 1018.8 |
| 20260509025438 | 49 | 190 | 0.0 | 0.0 | 0.00 | 0.00 | 0.00 | 91 | 1018.8 |
| 20260509025423 | 48 | 190 | 0.0 | 0.0 | 0.00 | 0.00 | 0.00 | 91 | 1018.8 |
| 20260509025155 | 48 | 190 | 0.0 | 0.0 | 0.00 | 0.00 | 0.00 | 91 | 1018.5 |
| 20260509024838 | 48 | 190 | 0.0 | 0.0 | 0.00 | 0.00 | 0.00 | 92 | 1018.9 |
| 20260509024834 | 48 | 190 | 0.0 | 0.0 | 0.00 | 0.00 | 0.00 | 91 | 1018.7 |
| 20260509024819 | 48 | 190 | 0.0 | 0.0 | 0.00 | 0.00 | 0.00 | 91 | 1019.0 |
| 20260509024802 | 48 | 190 | 0.0 | 0.0 | 0.00 | 0.00 | 0.00 | 91 | 1018.9 |
| 20260509024745 | 48 | 190 | 0.0 | 0.0 | 0.00 | 0.00 | 0.00 | 92 | 1018.9 |
| 20260509024434 | 48 | 190 | 0.0 | 0.0 | 0.00 | 0.00 | 0.00 | 92 | 1018.5 |
| 20260509024334 | 48 | 190 | 0.0 | 0.0 | 0.00 | 0.00 | 0.00 | 92 | 1018.7 |
| 20260509024235 | 48 | 190 | 0.0 | 0.0 | 0.00 | 0.00 | 0.00 | 92 | 1018.8 |
| 20260509024219 | 48 | 190 | 0.0 | 0.0 | 0.00 | 0.00 | 0.00 | 92 | 1018.9 |
| 20260509024154 | 48 | 190 | 0.0 | 0.0 | 0.00 | 0.00 | 0.00 | 92 | 1018.9 |
| 20260509023834 | 48 | 190 | 0.0 | 1.0 | 0.00 | 0.00 | 0.00 | 93 | 1018.8 |
| 20260509023734 | 48 | 190 | 0.0 | 1.0 | 0.00 | 0.00 | 0.00 | 93 | 1018.7 |
| 20260509023633 | 48 | 190 | 0.0 | 1.0 | 0.00 | 0.00 | 0.00 | 93 | 1018.5 |
| 20260509023610 | 48 | 190 | 0.0 | 1.0 | 0.00 | 0.00 | 0.00 | 93 | 1018.7 |
| 20260509023554 | 48 | 190 | 0.0 | 1.0 | 0.00 | 0.00 | 0.00 | 93 | 1018.7 |
| 20260509023318 | 48 | 190 | 0.0 | 1.0 | 0.00 | 0.00 | 0.00 | 94 | 1018.7 |
| 20260509023303 | 48 | 190 | 0.0 | 1.0 | 0.00 | 0.00 | 0.00 | 94 | 1018.8 |
| 20260509023035 | 49 | 190 | 0.0 | 1.0 | 0.00 | 0.00 | 0.00 | 94 | 1018.9 |
| 20260509022935 | 49 | 188 | 0.0 | 0.0 | 0.00 | 0.00 | 0.00 | 94 | 1019.0 |
| 20260509022834 | 49 | 188 | 0.0 | 0.0 | 0.00 | 0.00 | 0.00 | 94 | 1018.9 |
| 20260509022734 | 49 | 188 | 0.0 | 0.0 | 0.00 | 0.00 | 0.00 | 94 | 1018.9 |
| 20260509022634 | 49 | 188 | 0.0 | 0.0 | 0.00 | 0.00 | 0.00 | 94 | 1018.7 |
| 20260509022534 | 49 | 188 | 0.0 | 0.0 | 0.00 | 0.00 | 0.00 | 94 | 1018.7 |
| 20260509022433 | 49 | 188 | 0.0 | 0.0 | 0.00 | 0.00 | 0.00 | 94 | 1019.0 |
| 20260509022334 | 49 | 188 | 0.0 | 0.0 | 0.00 | 0.00 | 0.00 | 94 | 1018.7 |
| 20260509022234 | 49 | 188 | 0.0 | 0.0 | 0.00 | 0.00 | 0.00 | 94 | 1018.7 |
| 20260509022135 | 49 | 188 | 0.0 | 0.0 | 0.00 | 0.00 | 0.00 | 94 | 1018.9 |
| 20260509022034 | 49 | 188 | 0.0 | 0.0 | 0.00 | 0.00 | 0.00 | 94 | 1018.8 |
| 20260509021934 | 49 | 188 | 0.0 | 0.0 | 0.00 | 0.00 | 0.00 | 94 | 1018.8 |
| 20260509021833 | 49 | 188 | 0.0 | 0.0 | 0.00 | 0.00 | 0.00 | 94 | 1018.9 |
| 20260509021808 | 49 | 188 | 0.0 | 0.0 | 0.00 | 0.00 | 0.00 | 94 | 1018.9 |
| 20260509021751 | 49 | 188 | 0.0 | 0.0 | 0.00 | 0.00 | 0.00 | 94 | 1018.8 |
| 20260509021729 | 49 | 188 | 0.0 | 0.0 | 0.00 | 0.00 | 0.00 | 94 | 1018.8 |
| 20260509021454 | 49 | 188 | 0.0 | 0.0 | 0.00 | 0.00 | 0.00 | 94 | 1018.9 |
| 20260509021438 | 49 | 188 | 0.0 | 0.0 | 0.00 | 0.00 | 0.00 | 94 | 1018.7 |
| 20260509021423 | 49 | 188 | 0.0 | 0.0 | 0.00 | 0.00 | 0.00 | 94 | 1018.7 |
| 20260509021154 | 49 | 186 | 0.0 | 0.0 | 0.00 | 0.00 | 0.00 | 94 | 1018.5 |
| 20260509020835 | 49 | 183 | 0.0 | 0.0 | 0.00 | 0.00 | 0.00 | 93 | 1018.7 |
| 20260509020734 | 49 | 183 | 0.0 | 0.0 | 0.00 | 0.00 | 0.00 | 93 | 1018.5 |
| 20260509020640 | 49 | 183 | 0.0 | 0.0 | 0.00 | 0.00 | 0.00 | 93 | 1018.5 |
| 20260509020635 | 49 | 183 | 0.0 | 0.0 | 0.00 | 0.00 | 0.00 | 93 | 1018.8 |
| 20260509020613 | 49 | 183 | 0.0 | 0.0 | 0.00 | 0.00 | 0.00 | 93 | 1018.5 |
| 20260509020557 | 49 | 183 | 0.0 | 0.0 | 0.00 | 0.00 | 0.00 | 93 | 1018.7 |
| 20260509020542 | 49 | 183 | 0.0 | 0.0 | 0.00 | 0.00 | 0.00 | 93 | 1018.7 |
| 20260509020305 | 49 | 183 | 0.0 | 0.0 | 0.00 | 0.00 | 0.00 | 93 | 1018.9 |
| 20260509020246 | 49 | 183 | 0.0 | 0.0 | 0.00 | 0.00 | 0.00 | 93 | 1018.5 |
| 20260509020011 | 49 | 183 | 0.0 | 0.0 | 0.00 | 0.00 | 0.00 | 93 | 1018.5 |
| 20260509015955 | 49 | 183 | 0.0 | 0.0 | 0.00 | 0.00 | 0.00 | 93 | 1018.7 |
| 20260509015634 | 49 | 182 | 0.0 | 0.0 | 0.00 | 0.00 | 0.00 | 93 | 1018.5 |
| 20260509015534 | 49 | 183 | 0.0 | 0.0 | 0.00 | 0.00 | 0.00 | 93 | 1018.9 |
| 20260509015434 | 49 | 183 | 0.0 | 0.0 | 0.00 | 0.00 | 0.00 | 93 | 1018.5 |
| 20260509015334 | 49 | 183 | 0.0 | 0.0 | 0.00 | 0.00 | 0.00 | 93 | 1018.4 |
| 20260509015235 | 49 | 182 | 0.0 | 0.0 | 0.00 | 0.00 | 0.00 | 93 | 1018.8 |
| 20260509015219 | 49 | 182 | 0.0 | 0.0 | 0.00 | 0.00 | 0.00 | 93 | 1018.7 |
| 20260509015154 | 49 | 182 | 0.0 | 0.0 | 0.00 | 0.00 | 0.00 | 93 | 1018.7 |
| 20260509014833 | 49 | 182 | 0.0 | 0.0 | 0.00 | 0.00 | 0.00 | 93 | 1018.7 |
| 20260509014734 | 49 | 182 | 0.0 | 0.0 | 0.00 | 0.00 | 0.00 | 93 | 1018.5 |
| 20260509014634 | 49 | 183 | 0.0 | 0.0 | 0.00 | 0.00 | 0.00 | 93 | 1018.7 |
| 20260509014535 | 49 | 183 | 0.0 | 0.0 | 0.00 | 0.00 | 0.00 | 93 | 1018.8 |
| 20260509014435 | 49 | 183 | 0.0 | 0.0 | 0.00 | 0.00 | 0.00 | 93 | 1018.4 |
| 20260509014334 | 49 | 182 | 0.0 | 0.0 | 0.00 | 0.00 | 0.00 | 93 | 1018.7 |
| 20260509014234 | 49 | 182 | 0.0 | 0.0 | 0.00 | 0.00 | 0.00 | 93 | 1018.9 |
| 20260509014135 | 49 | 182 | 0.0 | 0.0 | 0.00 | 0.00 | 0.00 | 93 | 1018.7 |
| 20260509014035 | 49 | 182 | 0.0 | 0.0 | 0.00 | 0.00 | 0.00 | 93 | 1018.8 |
| 20260509013934 | 49 | 182 | 0.0 | 0.0 | 0.00 | 0.00 | 0.00 | 92 | 1018.5 |
| 20260509013835 | 49 | 182 | 0.0 | 0.0 | 0.00 | 0.00 | 0.00 | 92 | 1019.0 |
| 20260509013734 | 49 | 182 | 0.0 | 0.0 | 0.00 | 0.00 | 0.00 | 92 | 1018.9 |
| 20260509013634 | 49 | 182 | 0.0 | 0.0 | 0.00 | 0.00 | 0.00 | 92 | 1018.7 |
| 20260509013535 | 49 | 182 | 0.0 | 0.0 | 0.00 | 0.00 | 0.00 | 92 | 1018.9 |
| 20260509013509 | 49 | 182 | 0.0 | 0.0 | 0.00 | 0.00 | 0.00 | 92 | 1018.5 |
| 20260509013454 | 49 | 182 | 0.0 | 0.0 | 0.00 | 0.00 | 0.00 | 92 | 1019.0 |
| 20260509013134 | 49 | 183 | 0.0 | 0.0 | 0.00 | 0.00 | 0.00 | 92 | 1018.8 |
| 20260509013118 | 49 | 182 | 0.0 | 0.0 | 0.00 | 0.00 | 0.00 | 92 | 1018.7 |
| 20260509013111 | 49 | 182 | 0.0 | 0.0 | 0.00 | 0.00 | 0.00 | 92 | 1018.9 |
| 20260509013055 | 49 | 183 | 0.0 | 0.0 | 0.00 | 0.00 | 0.00 | 92 | 1018.4 |
| 20260509013039 | 49 | 182 | 0.0 | 0.0 | 0.00 | 0.00 | 0.00 | 92 | 1018.9 |
| 20260509013023 | 49 | 182 | 0.0 | 0.0 | 0.00 | 0.00 | 0.00 | 92 | 1018.9 |
| 20260509013008 | 49 | 182 | 0.0 | 0.0 | 0.00 | 0.00 | 0.00 | 92 | 1018.7 |
| 20260509012952 | 49 | 182 | 0.0 | 0.0 | 0.00 | 0.00 | 0.00 | 92 | 1018.8 |
| 20260509012935 | 49 | 182 | 0.0 | 0.0 | 0.00 | 0.00 | 0.00 | 92 | 1018.7 |
| 20260509012710 | 49 | 182 | 0.0 | 0.0 | 0.00 | 0.00 | 0.00 | 92 | 1018.5 |
| 20260509012654 | 49 | 182 | 0.0 | 0.0 | 0.00 | 0.00 | 0.00 | 92 | 1018.7 |
| 20260509012418 | 49 | 182 | 0.0 | 0.0 | 0.00 | 0.00 | 0.00 | 92 | 1019.0 |
| 20260509012358 | 49 | 182 | 0.0 | 0.0 | 0.00 | 0.00 | 0.00 | 92 | 1018.9 |
| 20260509012131 | 49 | 182 | 0.0 | 0.0 | 0.00 | 0.00 | 0.00 | 92 | 1018.9 |
| 20260509012114 | 49 | 182 | 0.0 | 0.0 | 0.00 | 0.00 | 0.00 | 92 | 1018.8 |
| 20260509012058 | 49 | 182 | 0.0 | 0.0 | 0.00 | 0.00 | 0.00 | 92 | 1018.7 |
| 20260509012041 | 49 | 182 | 0.0 | 0.0 | 0.00 | 0.00 | 0.00 | 92 | 1018.7 |
| 20260509011814 | 49 | 182 | 0.0 | 0.0 | 0.00 | 0.00 | 0.00 | 92 | 1018.7 |
| 20260509011234 | 49 | 182 | 0.0 | 0.0 | 0.00 | 0.00 | 0.00 | 92 | 1018.5 |
| 20260509011140 | 49 | 182 | 0.0 | 0.0 | 0.00 | 0.00 | 0.00 | 91 | 1018.7 |
| 20260509011034 | 50 | 182 | 0.0 | 0.0 | 0.00 | 0.00 | 0.00 | 91 | 1018.8 |
| 20260509010934 | 50 | 182 | 0.0 | 0.0 | 0.00 | 0.00 | 0.00 | 91 | 1018.5 |
| 20260509010834 | 50 | 182 | 0.0 | 0.0 | 0.00 | 0.00 | 0.00 | 91 | 1018.4 |
| 20260509010734 | 49 | 182 | 0.0 | 0.0 | 0.00 | 0.00 | 0.00 | 91 | 1018.8 |
| 20260509010634 | 49 | 182 | 0.0 | 0.0 | 0.00 | 0.00 | 0.00 | 91 | 1018.7 |
| 20260509010534 | 49 | 182 | 0.0 | 0.0 | 0.00 | 0.00 | 0.00 | 91 | 1018.9 |
| 20260509010511 | 49 | 182 | 0.0 | 0.0 | 0.00 | 0.00 | 0.00 | 91 | 1018.8 |
| 20260509010455 | 49 | 182 | 0.0 | 0.0 | 0.00 | 0.00 | 0.00 | 91 | 1018.8 |
| 20260509010218 | 49 | 182 | 0.0 | 0.0 | 0.00 | 0.00 | 0.00 | 91 | 1018.5 |
| 20260509010155 | 49 | 182 | 0.0 | 0.0 | 0.00 | 0.00 | 0.00 | 91 | 1018.7 |
| 20260509005833 | 49 | 182 | 0.0 | 0.0 | 0.00 | 0.00 | 0.00 | 91 | 1018.8 |
| 20260509005817 | 49 | 183 | 0.0 | 0.0 | 0.00 | 0.00 | 0.00 | 91 | 1018.8 |
| 20260509005801 | 49 | 182 | 0.0 | 0.0 | 0.00 | 0.00 | 0.00 | 91 | 1018.7 |
| 20260509005534 | 49 | 182 | 0.0 | 0.0 | 0.00 | 0.00 | 0.00 | 91 | 1018.9 |
| 20260509005434 | 49 | 182 | 0.0 | 0.0 | 0.00 | 0.00 | 0.00 | 91 | 1018.9 |
| 20260509005339 | 49 | 182 | 0.0 | 0.0 | 0.00 | 0.00 | 0.00 | 91 | 1018.8 |
| 20260509005334 | 49 | 182 | 0.0 | 0.0 | 0.00 | 0.00 | 0.00 | 91 | 1019.0 |
| 20260509005318 | 49 | 182 | 0.0 | 0.0 | 0.00 | 0.00 | 0.00 | 91 | 1018.9 |
| 20260509005306 | 49 | 182 | 0.0 | 0.0 | 0.00 | 0.00 | 0.00 | 91 | 1018.8 |
| 20260509005242 | 49 | 182 | 0.0 | 0.0 | 0.00 | 0.00 | 0.00 | 91 | 1018.8 |
| 20260509004739 | 49 | 182 | 0.0 | 0.0 | 0.00 | 0.00 | 0.00 | 91 | 1018.7 |
| 20260509004427 | 49 | 182 | 0.0 | 0.0 | 0.00 | 0.00 | 0.00 | 91 | 1018.9 |
| 20260509004402 | 49 | 182 | 0.0 | 0.0 | 0.00 | 0.00 | 0.00 | 91 | 1018.9 |
| 20260509004347 | 49 | 182 | 0.0 | 0.0 | 0.00 | 0.00 | 0.00 | 92 | 1018.8 |
| 20260509004047 | 49 | 182 | 0.0 | 0.0 | 0.00 | 0.00 | 0.00 | 92 | 1018.8 |
| 20260509004028 | 49 | 182 | 0.0 | 0.0 | 0.00 | 0.00 | 0.00 | 92 | 1018.7 |
| 20260509003927 | 49 | 182 | 0.0 | 0.0 | 0.00 | 0.00 | 0.00 | 92 | 1018.7 |
| 20260509003827 | 49 | 182 | 0.0 | 0.0 | 0.00 | 0.00 | 0.00 | 92 | 1018.7 |
| 20260509003728 | 49 | 182 | 0.0 | 0.0 | 0.00 | 0.00 | 0.00 | 92 | 1018.8 |
| 20260509003627 | 49 | 182 | 0.0 | 0.0 | 0.00 | 0.00 | 0.00 | 92 | 1019.0 |
| 20260509003548 | 49 | 182 | 0.0 | 0.0 | 0.00 | 0.00 | 0.00 | 92 | 1019.0 |
| 20260509003527 | 50 | 182 | 0.0 | 0.0 | 0.00 | 0.00 | 0.00 | 91 | 1018.9 |
| 20260509003428 | 50 | 182 | 0.0 | 0.0 | 0.00 | 0.00 | 0.00 | 91 | 1019.1 |
| 20260509003327 | 50 | 182 | 0.0 | 0.0 | 0.00 | 0.00 | 0.00 | 92 | 1018.8 |
| 20260509003228 | 50 | 182 | 0.0 | 0.0 | 0.00 | 0.00 | 0.00 | 92 | 1018.9 |
| 20260509003211 | 50 | 182 | 0.0 | 0.0 | 0.00 | 0.00 | 0.00 | 91 | 1019.0 |
| 20260509003154 | 50 | 182 | 0.0 | 0.0 | 0.00 | 0.00 | 0.00 | 91 | 1019.0 |
| 20260509003146 | 50 | 182 | 0.0 | 0.0 | 0.00 | 0.00 | 0.00 | 91 | 1019.1 |
| 20260509002828 | 50 | 182 | 0.0 | 0.0 | 0.00 | 0.00 | 0.00 | 91 | 1019.0 |
| 20260509002729 | 50 | 182 | 0.0 | 0.0 | 0.00 | 0.00 | 0.00 | 91 | 1019.0 |
| 20260509002627 | 50 | 182 | 0.0 | 0.0 | 0.00 | 0.00 | 0.00 | 91 | 1019.2 |
| 20260509002612 | 50 | 182 | 0.0 | 0.0 | 0.00 | 0.00 | 0.00 | 91 | 1019.0 |
| 20260509002604 | 50 | 182 | 0.0 | 0.0 | 0.00 | 0.00 | 0.00 | 91 | 1019.2 |
| 20260509002556 | 50 | 182 | 0.0 | 0.0 | 0.00 | 0.00 | 0.00 | 91 | 1019.1 |
| 20260509002541 | 50 | 182 | 0.0 | 0.0 | 0.00 | 0.00 | 0.00 | 91 | 1018.9 |
| 20260509002525 | 50 | 182 | 0.0 | 0.0 | 0.00 | 0.00 | 0.00 | 91 | 1019.1 |
| 20260509002508 | 50 | 182 | 0.0 | 0.0 | 0.00 | 0.00 | 0.00 | 91 | 1018.9 |
| 20260509002453 | 50 | 182 | 0.0 | 0.0 | 0.00 | 0.00 | 0.00 | 91 | 1019.0 |
| 20260509002223 | 50 | 182 | 0.0 | 0.0 | 0.00 | 0.00 | 0.00 | 91 | 1019.2 |
| 20260509001947 | 50 | 182 | 0.0 | 0.0 | 0.00 | 0.00 | 0.00 | 91 | 1019.0 |
| 20260509001628 | 50 | 182 | 0.0 | 0.0 | 0.00 | 0.00 | 0.00 | 90 | 1018.9 |
| 20260509001547 | 50 | 182 | 0.0 | 0.0 | 0.00 | 0.00 | 0.00 | 90 | 1018.9 |
| 20260509001527 | 50 | 182 | 0.0 | 0.0 | 0.00 | 0.00 | 0.00 | 90 | 1019.2 |
| 20260509001427 | 50 | 182 | 0.0 | 0.0 | 0.00 | 0.00 | 0.00 | 90 | 1019.1 |
| 20260509001327 | 50 | 182 | 0.0 | 0.0 | 0.00 | 0.00 | 0.00 | 90 | 1019.1 |
| 20260509001228 | 50 | 182 | 0.0 | 0.0 | 0.00 | 0.00 | 0.00 | 90 | 1019.1 |
| 20260509001128 | 50 | 182 | 0.0 | 0.0 | 0.00 | 0.00 | 0.00 | 90 | 1019.1 |
| 20260509001027 | 50 | 182 | 0.0 | 0.0 | 0.00 | 0.00 | 0.00 | 90 | 1019.1 |
| 20260509000927 | 50 | 182 | 0.0 | 0.0 | 0.00 | 0.00 | 0.00 | 90 | 1019.1 |
| 20260509000827 | 50 | 182 | 0.0 | 0.0 | 0.00 | 0.00 | 0.00 | 90 | 1019.2 |
| 20260509000728 | 50 | 181 | 0.0 | 0.0 | 0.00 | 0.00 | 0.00 | 90 | 1019.1 |
| 20260509000700 | 50 | 181 | 0.0 | 0.0 | 0.00 | 0.00 | 0.00 | 90 | 1019.1 |
| 20260509000646 | 50 | 181 | 0.0 | 0.0 | 0.00 | 0.00 | 0.00 | 90 | 1019.1 |
| 20260509000638 | 50 | 181 | 0.0 | 0.0 | 0.00 | 0.00 | 0.00 | 90 | 1019.0 |
| 20260509000621 | 50 | 181 | 0.0 | 0.0 | 0.00 | 0.00 | 0.00 | 90 | 1019.0 |
| 20260509000606 | 50 | 181 | 0.0 | 0.0 | 0.00 | 0.00 | 0.00 | 90 | 1019.0 |
| 20260509000027 | 50 | 181 | 0.0 | 0.0 | 0.00 | 0.00 | 0.00 | 90 | 1019.3 |
| 20260508235926 | 50 | 181 | 0.0 | 0.0 | 0.00 | 0.00 | 0.00 | 90 | 1019.1 |
| 20260508235828 | 50 | 181 | 0.0 | 0.0 | 0.00 | 0.00 | 0.00 | 90 | 1019.1 |
| 20260508235727 | 50 | 181 | 0.0 | 0.0 | 0.00 | 0.00 | 0.00 | 90 | 1019.3 |
| 20260508235701 | 50 | 181 | 0.0 | 0.0 | 0.00 | 0.00 | 0.00 | 90 | 1019.1 |
| 20260508235639 | 50 | 181 | 0.0 | 0.0 | 0.00 | 0.00 | 0.00 | 90 | 1019.1 |
| 20260508235622 | 50 | 181 | 0.0 | 0.0 | 0.00 | 0.00 | 0.00 | 90 | 1019.0 |
| 20260508235606 | 50 | 181 | 0.0 | 0.0 | 0.00 | 0.00 | 0.00 | 90 | 1019.1 |
| 20260508235331 | 50 | 181 | 0.0 | 0.0 | 0.00 | 0.00 | 0.00 | 90 | 1019.2 |
| 20260508235314 | 50 | 181 | 0.0 | 0.0 | 0.00 | 0.00 | 0.00 | 90 | 1019.2 |
| 20260508235307 | 50 | 181 | 0.0 | 0.0 | 0.00 | 0.00 | 0.00 | 90 | 1019.0 |
| 20260508235250 | 50 | 181 | 0.0 | 0.0 | 0.00 | 0.00 | 0.00 | 90 | 1019.2 |
| 20260508234753 | 50 | 181 | 0.0 | 0.0 | 0.00 | 0.00 | 0.00 | 90 | 1019.3 |
| 20260508234738 | 50 | 181 | 0.0 | 0.0 | 0.00 | 0.00 | 0.00 | 90 | 1019.3 |
| 20260508234428 | 50 | 181 | 0.0 | 0.0 | 0.00 | 0.00 | 0.00 | 90 | 1019.1 |
| 20260508234329 | 50 | 181 | 0.0 | 0.0 | 0.00 | 0.00 | 0.00 | 90 | 1019.3 |
| 20260508234313 | 50 | 181 | 0.0 | 0.0 | 0.00 | 0.00 | 0.00 | 90 | 1019.2 |
| 20260508234258 | 50 | 181 | 0.0 | 0.0 | 0.00 | 0.00 | 0.00 | 90 | 1019.1 |
| 20260508234240 | 50 | 181 | 0.0 | 0.0 | 0.00 | 0.00 | 0.00 | 90 | 1019.1 |
| 20260508233927 | 50 | 181 | 0.0 | 0.0 | 0.00 | 0.00 | 0.00 | 90 | 1019.1 |
| 20260508233827 | 50 | 181 | 0.0 | 0.0 | 0.00 | 0.00 | 0.00 | 90 | 1019.2 |
| 20260508233727 | 50 | 181 | 0.0 | 0.0 | 0.00 | 0.00 | 0.00 | 90 | 1019.2 |
| 20260508233628 | 50 | 181 | 0.0 | 0.0 | 0.00 | 0.00 | 0.00 | 90 | 1019.1 |
| 20260508233549 | 50 | 181 | 0.0 | 0.0 | 0.00 | 0.00 | 0.00 | 90 | 1019.1 |
| 20260508233527 | 50 | 181 | 0.0 | 0.0 | 0.00 | 0.00 | 0.00 | 90 | 1019.2 |
| 20260508233427 | 50 | 181 | 0.0 | 0.0 | 0.00 | 0.00 | 0.00 | 90 | 1019.2 |
| 20260508233404 | 50 | 181 | 0.0 | 0.0 | 0.00 | 0.00 | 0.00 | 90 | 1019.2 |
| 20260508233347 | 50 | 181 | 0.0 | 0.0 | 0.00 | 0.00 | 0.00 | 90 | 1019.3 |
| 20260508233047 | 50 | 181 | 0.0 | 0.0 | 0.00 | 0.00 | 0.00 | 90 | 1019.1 |
| 20260508233027 | 50 | 181 | 0.0 | 0.0 | 0.00 | 0.00 | 0.00 | 90 | 1019.2 |
| 20260508232927 | 50 | 181 | 0.0 | 0.0 | 0.00 | 0.00 | 0.00 | 90 | 1019.2 |
| 20260508232903 | 50 | 181 | 0.0 | 0.0 | 0.00 | 0.00 | 0.00 | 90 | 1019.1 |
| 20260508232848 | 50 | 181 | 0.0 | 0.0 | 0.00 | 0.00 | 0.00 | 90 | 1018.9 |
| 20260508232547 | 50 | 180 | 0.0 | 0.0 | 0.00 | 0.00 | 0.00 | 90 | 1019.2 |
| 20260508232527 | 50 | 181 | 0.0 | 0.0 | 0.00 | 0.00 | 0.00 | 90 | 1019.2 |
| 20260508232427 | 50 | 181 | 0.0 | 0.0 | 0.00 | 0.00 | 0.00 | 90 | 1019.1 |
| 20260508232327 | 50 | 180 | 0.0 | 0.0 | 0.00 | 0.00 | 0.00 | 90 | 1019.3 |
| 20260508232227 | 50 | 181 | 0.0 | 0.0 | 0.00 | 0.00 | 0.00 | 90 | 1019.1 |
| 20260508232127 | 50 | 181 | 0.0 | 0.0 | 0.00 | 0.00 | 0.00 | 90 | 1019.2 |
| 20260508232026 | 50 | 181 | 0.0 | 0.0 | 0.00 | 0.00 | 0.00 | 90 | 1019.2 |
| 20260508231927 | 50 | 181 | 0.0 | 0.0 | 0.00 | 0.00 | 0.00 | 90 | 1019.2 |
| 20260508231827 | 50 | 180 | 0.0 | 0.0 | 0.00 | 0.00 | 0.00 | 90 | 1019.2 |
| 20260508231727 | 50 | 180 | 0.0 | 0.0 | 0.00 | 0.00 | 0.00 | 90 | 1019.0 |
| 20260508231642 | 50 | 180 | 0.0 | 0.0 | 0.00 | 0.00 | 0.00 | 89 | 1019.3 |
| 20260508231637 | 50 | 180 | 0.0 | 0.0 | 0.00 | 0.00 | 0.00 | 89 | 1019.0 |
| 20260508231622 | 50 | 181 | 0.0 | 0.0 | 0.00 | 0.00 | 0.00 | 89 | 1019.0 |
| 20260508231615 | 50 | 181 | 0.0 | 0.0 | 0.00 | 0.00 | 0.00 | 89 | 1019.3 |
| 20260508231559 | 50 | 181 | 0.0 | 0.0 | 0.00 | 0.00 | 0.00 | 89 | 1019.4 |
| 20260508231324 | 50 | 181 | 0.0 | 0.0 | 0.00 | 0.00 | 0.00 | 89 | 1019.4 |
| 20260508231308 | 50 | 181 | 0.0 | 0.0 | 0.00 | 0.00 | 0.00 | 89 | 1019.3 |
| 20260508231028 | 50 | 180 | 0.0 | 0.0 | 0.00 | 0.00 | 0.00 | 89 | 1019.3 |
| 20260508230928 | 50 | 180 | 0.0 | 0.0 | 0.00 | 0.00 | 0.00 | 89 | 1019.3 |
| 20260508230827 | 50 | 180 | 0.0 | 0.0 | 0.00 | 0.00 | 0.00 | 89 | 1019.3 |
| 20260508230727 | 50 | 180 | 0.0 | 0.0 | 0.00 | 0.00 | 0.00 | 89 | 1019.3 |
| 20260508230627 | 50 | 180 | 0.0 | 0.0 | 0.00 | 0.00 | 0.00 | 89 | 1019.2 |
| 20260508230548 | 50 | 180 | 0.0 | 0.0 | 0.00 | 0.00 | 0.00 | 89 | 1019.2 |
| 20260508230527 | 50 | 180 | 0.0 | 0.0 | 0.00 | 0.00 | 0.00 | 89 | 1019.3 |
| 20260508230429 | 50 | 180 | 0.0 | 0.0 | 0.00 | 0.00 | 0.00 | 89 | 1019.3 |
| 20260508230328 | 50 | 180 | 0.0 | 0.0 | 0.00 | 0.00 | 0.00 | 89 | 1019.2 |
| 20260508230227 | 50 | 180 | 0.0 | 0.0 | 0.00 | 0.00 | 0.00 | 89 | 1019.2 |
| 20260508230130 | 50 | 180 | 0.0 | 0.0 | 0.00 | 0.00 | 0.00 | 89 | 1019.1 |
| 20260508230113 | 50 | 180 | 0.0 | 0.0 | 0.00 | 0.00 | 0.00 | 89 | 1019.1 |
| 20260508230105 | 50 | 180 | 0.0 | 0.0 | 0.00 | 0.00 | 0.00 | 89 | 1019.2 |
| 20260508230049 | 50 | 180 | 0.0 | 0.0 | 0.00 | 0.00 | 0.00 | 89 | 1019.3 |
| 20260508225728 | 50 | 180 | 0.0 | 0.0 | 0.00 | 0.00 | 0.00 | 89 | 1019.3 |
| 20260508225626 | 50 | 180 | 0.0 | 0.0 | 0.00 | 0.00 | 0.00 | 89 | 1019.3 |
| 20260508225547 | 50 | 180 | 0.0 | 0.0 | 0.00 | 0.00 | 0.00 | 89 | 1019.3 |
| 20260508225527 | 50 | 180 | 0.0 | 0.0 | 0.00 | 0.00 | 0.00 | 89 | 1019.4 |
| 20260508225427 | 50 | 180 | 0.0 | 0.0 | 0.00 | 0.00 | 0.00 | 89 | 1019.2 |
| 20260508225327 | 50 | 180 | 0.0 | 0.0 | 0.00 | 0.00 | 0.00 | 89 | 1019.3 |
| 20260508225228 | 50 | 180 | 0.0 | 0.0 | 0.00 | 0.00 | 0.00 | 89 | 1019.3 |
| 20260508225128 | 50 | 180 | 0.0 | 0.0 | 0.00 | 0.00 | 0.00 | 89 | 1019.3 |
| 20260508225027 | 50 | 180 | 0.0 | 0.0 | 0.00 | 0.00 | 0.00 | 89 | 1019.3 |
| 20260508224923 | 50 | 180 | 0.0 | 0.0 | 0.00 | 0.00 | 0.00 | 89 | 1019.2 |
| 20260508224823 | 50 | 180 | 0.0 | 0.0 | 0.00 | 0.00 | 0.00 | 89 | 1019.4 |
| 20260508224723 | 50 | 180 | 0.0 | 0.0 | 0.00 | 0.00 | 0.00 | 89 | 1019.4 |
| 20260508224657 | 50 | 180 | 0.0 | 0.0 | 0.00 | 0.00 | 0.00 | 89 | 1019.6 |
| 20260508224643 | 50 | 180 | 0.0 | 0.0 | 0.00 | 0.00 | 0.00 | 89 | 1019.6 |
| 20260508224634 | 50 | 180 | 0.0 | 0.0 | 0.00 | 0.00 | 0.00 | 89 | 1019.5 |
| 20260508224618 | 50 | 180 | 0.0 | 0.0 | 0.00 | 0.00 | 0.00 | 89 | 1019.2 |
| 20260508224603 | 50 | 180 | 0.0 | 0.0 | 0.00 | 0.00 | 0.00 | 89 | 1019.5 |
| 20260508224547 | 50 | 180 | 0.0 | 0.0 | 0.00 | 0.00 | 0.00 | 89 | 1019.3 |
| 20260508224311 | 50 | 180 | 0.0 | 0.0 | 0.00 | 0.00 | 0.00 | 89 | 1019.2 |
| 20260508224303 | 50 | 180 | 0.0 | 0.0 | 0.00 | 0.00 | 0.00 | 89 | 1019.3 |
| 20260508223724 | 50 | 180 | 0.0 | 0.0 | 0.00 | 0.00 | 0.00 | 89 | 1019.2 |
| 20260508223623 | 50 | 180 | 0.0 | 0.0 | 0.00 | 0.00 | 0.00 | 89 | 1019.3 |
| 20260508223545 | 50 | 180 | 0.0 | 0.0 | 0.00 | 0.00 | 0.00 | 89 | 1019.3 |
| 20260508223522 | 50 | 180 | 0.0 | 0.0 | 0.00 | 0.00 | 0.00 | 89 | 1019.2 |
| 20260508223423 | 50 | 180 | 0.0 | 0.0 | 0.00 | 0.00 | 0.00 | 89 | 1019.5 |
| 20260508223322 | 50 | 179 | 0.0 | 0.0 | 0.00 | 0.00 | 0.00 | 89 | 1019.3 |
| 20260508223223 | 50 | 179 | 0.0 | 0.0 | 0.00 | 0.00 | 0.00 | 89 | 1019.2 |
| 20260508223123 | 50 | 179 | 0.0 | 0.0 | 0.00 | 0.00 | 0.00 | 89 | 1019.2 |
| 20260508223043 | 50 | 179 | 0.0 | 0.0 | 0.00 | 0.00 | 0.00 | 89 | 1019.2 |
| 20260508223022 | 50 | 179 | 0.0 | 0.0 | 0.00 | 0.00 | 0.00 | 89 | 1019.3 |
| 20260508222959 | 50 | 178 | 0.0 | 0.0 | 0.00 | 0.00 | 0.00 | 89 | 1019.2 |
| 20260508222943 | 50 | 178 | 0.0 | 0.0 | 0.00 | 0.00 | 0.00 | 89 | 1019.3 |
| 20260508222709 | 50 | 181 | 0.0 | 0.0 | 0.00 | 0.00 | 0.00 | 88 | 1019.5 |
| 20260508222659 | 50 | 177 | 0.0 | 0.0 | 0.00 | 0.00 | 0.00 | 88 | 1019.2 |
| 20260508222644 | 50 | 176 | 0.0 | 0.0 | 0.00 | 0.00 | 0.00 | 88 | 1019.2 |
| 20260508222636 | 50 | 176 | 0.0 | 0.0 | 0.00 | 0.00 | 0.00 | 88 | 1019.3 |
| 20260508222620 | 50 | 176 | 0.0 | 0.0 | 0.00 | 0.00 | 0.00 | 88 | 1019.5 |
| 20260508222604 | 50 | 175 | 0.0 | 0.0 | 0.00 | 0.00 | 0.00 | 88 | 1019.5 |
| 20260508222328 | 50 | 161 | 0.0 | 0.0 | 0.00 | 0.00 | 0.00 | 88 | 1019.5 |
| 20260508222059 | 50 | 181 | 0.0 | 0.0 | 0.00 | 0.00 | 0.00 | 89 | 1019.4 |
| 20260508222044 | 50 | 182 | 0.0 | 0.0 | 0.00 | 0.00 | 0.00 | 89 | 1019.3 |
| 20260508221724 | 50 | 181 | 0.0 | 0.0 | 0.00 | 0.00 | 0.00 | 89 | 1019.5 |
| 20260508221622 | 50 | 181 | 0.0 | 0.0 | 0.00 | 0.00 | 0.00 | 89 | 1019.2 |
| 20260508221544 | 50 | 181 | 0.0 | 0.0 | 0.00 | 0.00 | 0.00 | 89 | 1019.2 |
| 20260508221523 | 50 | 181 | 0.0 | 0.0 | 0.00 | 0.00 | 0.00 | 89 | 1019.3 |
| 20260508221423 | 50 | 180 | 0.0 | 0.0 | 0.00 | 0.00 | 0.00 | 89 | 1019.3 |
| 20260508221323 | 50 | 179 | 0.0 | 0.0 | 0.00 | 0.00 | 0.00 | 89 | 1019.1 |
| 20260508221258 | 50 | 179 | 0.0 | 0.0 | 0.00 | 0.00 | 0.00 | 89 | 1019.2 |
| 20260508221243 | 50 | 179 | 0.0 | 0.0 | 0.00 | 0.00 | 0.00 | 89 | 1019.1 |
| 20260508221227 | 50 | 179 | 0.0 | 0.0 | 0.00 | 0.00 | 0.00 | 89 | 1019.1 |
| 20260508221219 | 50 | 179 | 0.0 | 0.0 | 0.00 | 0.00 | 0.00 | 89 | 1019.2 |
| 20260508220943 | 50 | 177 | 0.0 | 0.0 | 0.00 | 0.00 | 0.00 | 89 | 1019.1 |
| 20260508220623 | 50 | 176 | 0.0 | 1.0 | 0.00 | 0.00 | 0.00 | 89 | 1019.2 |
| 20260508220543 | 50 | 176 | 0.0 | 1.0 | 0.00 | 0.00 | 0.00 | 89 | 1019.2 |
| 20260508220523 | 50 | 174 | 0.0 | 1.0 | 0.00 | 0.00 | 0.00 | 89 | 1019.1 |
| 20260508220424 | 50 | 177 | 0.0 | 1.0 | 0.00 | 0.00 | 0.00 | 89 | 1019.0 |
| 20260508220355 | 50 | 174 | 0.0 | 1.0 | 0.00 | 0.00 | 0.00 | 89 | 1019.2 |
| 20260508220348 | 50 | 176 | 0.0 | 1.0 | 0.00 | 0.00 | 0.00 | 89 | 1019.1 |
| 20260508220332 | 50 | 173 | 0.0 | 1.0 | 0.00 | 0.00 | 0.00 | 89 | 1019.2 |
| 20260508220317 | 50 | 174 | 0.0 | 1.0 | 0.00 | 0.00 | 0.00 | 89 | 1019.2 |
| 20260508220024 | 50 | 174 | 0.0 | 1.0 | 0.00 | 0.00 | 0.00 | 89 | 1019.2 |
| 20260508215924 | 51 | 168 | 0.0 | 1.0 | 0.00 | 0.00 | 0.33 | 89 | 1019.2 |
| 20260508215823 | 51 | 144 | 0.0 | 0.0 | 0.00 | 0.00 | 0.33 | 89 | 1019.1 |
| 20260508215723 | 51 | 178 | 0.0 | 0.0 | 0.00 | 0.00 | 0.33 | 89 | 1019.3 |
| 20260508215623 | 51 | 178 | 0.0 | 0.0 | 0.00 | 0.00 | 0.33 | 89 | 1019.1 |
| 20260508215524 | 51 | 178 | 0.0 | 0.0 | 0.00 | 0.00 | 0.33 | 89 | 1019.1 |
| 20260508215458 | 51 | 179 | 0.0 | 0.0 | 0.00 | 0.00 | 0.33 | 89 | 1019.1 |
| 20260508215443 | 51 | 178 | 0.0 | 0.0 | 0.00 | 0.00 | 0.33 | 89 | 1019.2 |
| 20260508215206 | 51 | 179 | 0.0 | 0.0 | 0.00 | 0.00 | 0.33 | 89 | 1019.1 |
| 20260508215142 | 51 | 179 | 0.0 | 0.0 | 0.00 | 0.00 | 0.33 | 89 | 1019.1 |
| 20260508214858 | 51 | 179 | 0.0 | 0.0 | 0.00 | 0.00 | 0.33 | 89 | 1019.2 |
| 20260508214843 | 51 | 179 | 0.0 | 0.0 | 0.00 | 0.00 | 0.33 | 89 | 1019.2 |
| 20260508214544 | 51 | 178 | 0.0 | 0.0 | 0.00 | 0.00 | 0.33 | 88 | 1019.0 |
| 20260508214523 | 51 | 178 | 0.0 | 0.0 | 0.00 | 0.00 | 0.33 | 88 | 1018.9 |
| 20260508214451 | 51 | 179 | 0.0 | 0.0 | 0.00 | 0.00 | 0.33 | 88 | 1018.9 |
| 20260508214436 | 51 | 178 | 0.0 | 0.0 | 0.00 | 0.00 | 0.33 | 88 | 1018.9 |
| 20260508214419 | 51 | 179 | 0.0 | 0.0 | 0.00 | 0.00 | 0.33 | 88 | 1019.0 |
| 20260508214403 | 51 | 179 | 0.0 | 0.0 | 0.00 | 0.00 | 0.33 | 88 | 1019.1 |
| 20260508214339 | 51 | 179 | 0.0 | 0.0 | 0.00 | 0.00 | 0.33 | 88 | 1019.1 |
| 20260508214104 | 51 | 178 | 0.0 | 0.0 | 0.00 | 0.00 | 0.33 | 87 | 1019.1 |
| 20260508213523 | 51 | 177 | 0.0 | 0.0 | 0.00 | 0.00 | 0.33 | 87 | 1018.9 |
| 20260508213452 | 51 | 177 | 0.0 | 0.0 | 0.00 | 0.00 | 0.33 | 87 | 1019.1 |
| 20260508213435 | 51 | 176 | 0.0 | 0.0 | 0.00 | 0.00 | 0.33 | 87 | 1019.0 |
| 20260508213418 | 51 | 176 | 0.0 | 0.0 | 0.00 | 0.00 | 0.33 | 87 | 1019.0 |
| 20260508213403 | 51 | 176 | 0.0 | 0.0 | 0.00 | 0.00 | 0.33 | 87 | 1019.1 |
| 20260508213338 | 51 | 175 | 0.0 | 0.0 | 0.00 | 0.00 | 0.33 | 87 | 1019.1 |
| 20260508212843 | 51 | 176 | 0.0 | 1.0 | 0.00 | 0.00 | 0.33 | 87 | 1019.2 |
| 20260508212545 | 51 | 174 | 0.0 | 1.0 | 0.00 | 0.00 | 0.33 | 87 | 1019.2 |
| 20260508212523 | 51 | 172 | 0.0 | 1.0 | 0.00 | 0.00 | 0.33 | 87 | 1019.0 |
| 20260508212423 | 51 | 160 | 0.0 | 1.0 | 0.00 | 0.00 | 0.33 | 87 | 1019.0 |
| 20260508212323 | 51 | 179 | 0.0 | 1.0 | 0.00 | 0.00 | 0.33 | 86 | 1019.0 |
| 20260508212224 | 51 | 174 | 0.0 | 2.0 | 0.00 | 0.00 | 0.33 | 86 | 1019.2 |
| 20260508212141 | 51 | 164 | 0.0 | 2.0 | 0.00 | 0.00 | 0.33 | 86 | 1019.0 |
| 20260508212135 | 51 | 171 | 0.0 | 2.0 | 0.00 | 0.00 | 0.33 | 86 | 1019.0 |
| 20260508212118 | 51 | 169 | 0.0 | 2.0 | 0.00 | 0.00 | 0.33 | 86 | 1019.0 |
| 20260508212110 | 51 | 168 | 0.0 | 2.0 | 0.00 | 0.00 | 0.33 | 86 | 1019.0 |
| 20260508212055 | 51 | 155 | 0.0 | 2.0 | 0.00 | 0.00 | 0.33 | 86 | 1019.1 |
| 20260508211818 | 51 | 169 | 0.0 | 2.0 | 0.00 | 0.00 | 0.33 | 86 | 1019.1 |
| 20260508211802 | 51 | 167 | 0.0 | 2.0 | 0.00 | 0.00 | 0.33 | 86 | 1019.0 |
| 20260508211523 | 51 | 159 | 0.0 | 2.0 | 0.00 | 0.00 | 0.33 | 86 | 1019.2 |
| 20260508211423 | 51 | 134 | 0.0 | 2.0 | 0.00 | 0.00 | 0.33 | 86 | 1018.9 |
| 20260508211323 | 51 | 134 | 0.0 | 2.0 | 0.00 | 0.00 | 0.33 | 86 | 1018.9 |
| 20260508211223 | 51 | 63 | 0.0 | 2.0 | 0.00 | 0.00 | 0.33 | 86 | 1019.0 |
| 20260508211123 | 51 | 166 | 0.0 | 1.0 | 0.00 | 0.00 | 0.33 | 86 | 1019.1 |
| 20260508211107 | 51 | 166 | 0.0 | 1.0 | 0.00 | 0.00 | 0.33 | 86 | 1019.1 |
| 20260508211059 | 51 | 167 | 0.0 | 1.0 | 0.00 | 0.00 | 0.33 | 86 | 1019.0 |
| 20260508211043 | 51 | 155 | 0.0 | 1.0 | 0.00 | 0.00 | 0.33 | 86 | 1019.1 |
| 20260508210725 | 51 | 176 | 0.0 | 1.0 | 0.00 | 0.00 | 0.33 | 86 | 1018.9 |
| 20260508210623 | 51 | 174 | 0.0 | 1.0 | 0.00 | 0.00 | 0.33 | 86 | 1018.9 |
| 20260508210607 | 51 | 174 | 0.0 | 1.0 | 0.00 | 0.00 | 0.33 | 86 | 1018.9 |
| 20260508210559 | 51 | 175 | 0.0 | 1.0 | 0.00 | 0.00 | 0.33 | 86 | 1019.2 |
| 20260508210543 | 51 | 174 | 0.0 | 1.0 | 0.00 | 0.00 | 0.33 | 86 | 1019.0 |
| 20260508210223 | 51 | 161 | 0.0 | 1.0 | 0.00 | 0.00 | 0.33 | 86 | 1019.1 |
| 20260508210158 | 51 | 173 | 0.0 | 1.0 | 0.00 | 0.00 | 0.33 | 86 | 1018.9 |
| 20260508210142 | 51 | 176 | 0.0 | 1.0 | 0.00 | 0.00 | 0.33 | 86 | 1018.9 |
| 20260508210134 | 51 | 177 | 0.0 | 1.0 | 0.00 | 0.00 | 0.33 | 86 | 1018.9 |
| 20260508210117 | 51 | 175 | 0.0 | 1.0 | 0.00 | 0.00 | 0.33 | 86 | 1019.2 |
| 20260508210046 | 51 | 172 | 0.0 | 1.0 | 0.00 | 0.00 | 0.33 | 85 | 1019.1 |
| 20260508205811 | 51 | 160 | 0.0 | 4.0 | 0.00 | 0.00 | 0.33 | 85 | 1019.0 |
| 20260508205803 | 51 | 155 | 0.0 | 4.0 | 0.00 | 0.00 | 0.33 | 85 | 1019.0 |
| 20260508205748 | 51 | 63 | 1.0 | 4.0 | 0.00 | 0.00 | 0.33 | 85 | 1018.8 |
| 20260508205309 | 51 | 152 | 0.0 | 6.0 | 0.00 | 0.00 | 0.33 | 86 | 1018.9 |
| 20260508205306 | 51 | 172 | 0.0 | 6.0 | 0.00 | 0.00 | 0.33 | 85 | 1019.0 |
| 20260508205256 | 51 | 139 | 0.0 | 4.0 | 0.00 | 0.00 | 0.33 | 85 | 1018.9 |
| 20260508205240 | 51 | 177 | 0.0 | 4.0 | 0.00 | 0.00 | 0.33 | 86 | 1019.0 |
| 20260508205223 | 51 | 176 | 0.0 | 4.0 | 0.00 | 0.00 | 0.33 | 85 | 1019.0 |
| 20260508205215 | 51 | 168 | 0.0 | 4.0 | 0.00 | 0.00 | 0.33 | 85 | 1019.0 |
| 20260508204938 | 51 | 162 | 0.0 | 4.0 | 0.00 | 0.00 | 0.33 | 85 | 1018.8 |
| 20260508204921 | 51 | 87 | 0.0 | 4.0 | 0.00 | 0.00 | 0.33 | 85 | 1018.9 |
| 20260508204906 | 51 | 40 | 3.0 | 3.0 | 0.00 | 0.00 | 0.33 | 85 | 1019.1 |
| 20260508204852 | 51 | 57 | 1.0 | 2.0 | 0.00 | 0.00 | 0.33 | 85 | 1019.1 |
| 20260508204844 | 51 | 177 | 0.0 | 1.0 | 0.00 | 0.00 | 0.33 | 86 | 1019.0 |
| 20260508204347 | 51 | 172 | 0.0 | 1.0 | 0.00 | 0.00 | 0.33 | 86 | 1018.9 |
| 20260508204332 | 51 | 166 | 0.0 | 1.0 | 0.00 | 0.00 | 0.33 | 86 | 1018.8 |
| 20260508204315 | 51 | 159 | 0.0 | 1.0 | 0.00 | 0.00 | 0.33 | 86 | 1018.8 |
| 20260508204047 | 51 | 164 | 0.0 | 1.0 | 0.00 | 0.00 | 0.33 | 86 | 1019.0 |
| 20260508204031 | 51 | 111 | 0.0 | 3.0 | 0.00 | 0.00 | 0.33 | 86 | 1018.5 |
| 20260508204016 | 51 | 182 | 0.0 | 3.0 | 0.00 | 0.00 | 0.33 | 86 | 1018.9 |
| 20260508204000 | 51 | 179 | 0.0 | 3.0 | 0.00 | 0.00 | 0.33 | 86 | 1019.0 |
| 20260508203946 | 51 | 178 | 0.0 | 3.0 | 0.00 | 0.00 | 0.33 | 86 | 1019.0 |
| 20260508203938 | 51 | 177 | 0.0 | 6.0 | 0.00 | 0.00 | 0.33 | 86 | 1019.0 |
| 20260508203703 | 51 | 168 | 0.0 | 6.0 | 0.00 | 0.00 | 0.33 | 86 | 1018.9 |
| 20260508203424 | 51 | 146 | 0.0 | 6.0 | 0.00 | 0.00 | 0.33 | 86 | 1019.0 |
| 20260508203156 | 51 | 163 | 0.0 | 6.0 | 0.00 | 0.00 | 0.33 | 85 | 1018.8 |
| 20260508202932 | 51 | 101 | 0.0 | 6.0 | 0.00 | 0.00 | 0.33 | 85 | 1018.8 |
| 20260508202916 | 51 | 52 | 0.0 | 6.0 | 0.00 | 0.00 | 0.33 | 85 | 1018.8 |
| 20260508202900 | 51 | 110 | 0.0 | 6.0 | 0.00 | 0.00 | 0.33 | 85 | 1018.8 |
| 20260508202844 | 51 | 117 | 0.0 | 6.0 | 0.00 | 0.00 | 0.33 | 86 | 1018.9 |
| 20260508202617 | 51 | 47 | 1.0 | 6.0 | 0.00 | 0.00 | 0.33 | 86 | 1018.8 |
| 20260508202600 | 51 | 55 | 1.0 | 6.0 | 0.00 | 0.00 | 0.33 | 86 | 1018.7 |
| 20260508202336 | 51 | 95 | 0.0 | 6.0 | 0.00 | 0.00 | 0.33 | 86 | 1018.8 |
| 20260508202320 | 51 | 59 | 1.0 | 6.0 | 0.00 | 0.00 | 0.33 | 86 | 1018.8 |
| 20260508202307 | 51 | 151 | 0.0 | 6.0 | 0.00 | 0.00 | 0.33 | 86 | 1018.9 |
| 20260508202023 | 51 | 55 | 1.0 | 6.0 | 0.00 | 0.00 | 0.33 | 86 | 1018.9 |
| 20260508201923 | 51 | 141 | 0.0 | 6.0 | 0.00 | 0.00 | 0.33 | 86 | 1018.8 |
| 20260508201823 | 52 | 38 | 1.0 | 3.0 | 0.00 | 0.00 | 0.33 | 86 | 1018.5 |
| 20260508201723 | 52 | 170 | 0.0 | 2.0 | 0.00 | 0.00 | 0.33 | 87 | 1018.8 |
| 20260508201623 | 52 | 164 | 0.0 | 2.0 | 0.00 | 0.00 | 0.33 | 87 | 1018.9 |
| 20260508201544 | 52 | 163 | 0.0 | 2.0 | 0.00 | 0.00 | 0.33 | 87 | 1018.9 |
| 20260508201523 | 52 | 164 | 0.0 | 2.0 | 0.00 | 0.00 | 0.33 | 87 | 1018.9 |
| 20260508201459 | 52 | 167 | 0.0 | 2.0 | 0.00 | 0.00 | 0.33 | 86 | 1018.8 |
| 20260508201443 | 52 | 168 | 0.0 | 2.0 | 0.00 | 0.00 | 0.33 | 86 | 1018.9 |
| 20260508201125 | 52 | 39 | 2.0 | 2.0 | 0.00 | 0.00 | 0.33 | 86 | 1018.7 |
| 20260508201044 | 52 | 174 | 0.0 | 2.0 | 0.00 | 0.00 | 0.33 | 86 | 1018.7 |
| 20260508201023 | 52 | 172 | 0.0 | 2.0 | 0.00 | 0.00 | 0.33 | 86 | 1018.7 |
| 20260508200924 | 52 | 169 | 0.0 | 2.0 | 0.00 | 0.00 | 0.33 | 86 | 1018.8 |
| 20260508200839 | 52 | 148 | 0.0 | 2.0 | 0.00 | 0.00 | 0.33 | 86 | 1018.8 |
| 20260508200834 | 52 | 172 | 0.0 | 2.0 | 0.00 | 0.00 | 0.33 | 86 | 1018.9 |
| 20260508200818 | 52 | 171 | 0.0 | 2.0 | 0.00 | 0.00 | 0.33 | 86 | 1018.8 |
| 20260508200802 | 52 | 163 | 0.0 | 2.0 | 0.00 | 0.00 | 0.33 | 86 | 1018.8 |
| 20260508200523 | 52 | 106 | 0.0 | 2.0 | 0.00 | 0.00 | 0.33 | 86 | 1018.8 |
| 20260508200424 | 52 | 63 | 1.0 | 2.0 | 0.00 | 0.00 | 0.33 | 86 | 1018.7 |
| 20260508200325 | 52 | 147 | 0.0 | 0.0 | 0.00 | 0.00 | 0.33 | 86 | 1018.5 |
| 20260508200308 | 52 | 183 | 0.0 | 0.0 | 0.00 | 0.00 | 0.33 | 86 | 1018.7 |
| 20260508200253 | 52 | 182 | 0.0 | 0.0 | 0.00 | 0.00 | 0.33 | 86 | 1018.7 |
| 20260508200235 | 52 | 182 | 0.0 | 0.0 | 0.00 | 0.00 | 0.33 | 86 | 1018.7 |
| 20260508195923 | 52 | 183 | 0.0 | 0.0 | 0.00 | 0.00 | 0.33 | 86 | 1018.4 |
| 20260508195824 | 52 | 187 | 0.0 | 0.0 | 0.00 | 0.00 | 0.33 | 86 | 1018.7 |
| 20260508195724 | 52 | 180 | 0.0 | 0.0 | 0.00 | 0.00 | 0.33 | 86 | 1018.7 |
| 20260508195623 | 52 | 176 | 0.0 | 0.0 | 0.00 | 0.00 | 0.33 | 86 | 1018.5 |
| 20260508195523 | 52 | 170 | 0.0 | 0.0 | 0.00 | 0.00 | 0.33 | 86 | 1018.5 |
| 20260508195459 | 52 | 184 | 0.0 | 1.0 | 0.00 | 0.00 | 0.33 | 86 | 1018.5 |
| 20260508195443 | 52 | 183 | 0.0 | 1.0 | 0.00 | 0.00 | 0.33 | 86 | 1018.5 |
| 20260508195123 | 52 | 175 | 0.0 | 2.0 | 0.00 | 0.00 | 0.33 | 86 | 1018.7 |
| 20260508195043 | 52 | 172 | 0.0 | 2.0 | 0.00 | 0.00 | 0.33 | 86 | 1018.4 |
| 20260508195023 | 52 | 161 | 0.0 | 2.0 | 0.00 | 0.00 | 0.33 | 86 | 1018.7 |
| 20260508194923 | 52 | 172 | 0.0 | 2.0 | 0.00 | 0.00 | 0.33 | 86 | 1018.4 |
| 20260508194849 | 53 | 80 | 0.0 | 3.0 | 0.00 | 0.00 | 0.33 | 85 | 1018.5 |
| 20260508194842 | 52 | 158 | 0.0 | 2.0 | 0.00 | 0.00 | 0.33 | 86 | 1018.5 |
| 20260508194827 | 52 | 147 | 0.0 | 3.0 | 0.00 | 0.00 | 0.33 | 85 | 1018.5 |
| 20260508194811 | 52 | 127 | 0.0 | 3.0 | 0.00 | 0.00 | 0.33 | 85 | 1018.3 |
| 20260508194757 | 52 | 83 | 0.0 | 3.0 | 0.00 | 0.00 | 0.33 | 85 | 1018.3 |
| 20260508194749 | 52 | 74 | 0.0 | 3.0 | 0.00 | 0.00 | 0.33 | 85 | 1018.8 |
| 20260508194734 | 52 | 166 | 0.0 | 3.0 | 0.00 | 0.00 | 0.33 | 85 | 1018.4 |
| 20260508194717 | 52 | 162 | 0.0 | 3.0 | 0.00 | 0.00 | 0.33 | 85 | 1018.1 |
| 20260508194701 | 52 | 145 | 0.0 | 3.0 | 0.00 | 0.00 | 0.33 | 85 | 1018.7 |
| 20260508194645 | 53 | 108 | 0.0 | 3.0 | 0.00 | 0.00 | 0.33 | 85 | 1018.5 |
| 20260508194416 | 53 | 66 | 1.0 | 3.0 | 0.00 | 0.00 | 0.33 | 85 | 1018.3 |
| 20260508194141 | 53 | 75 | 0.0 | 3.0 | 0.00 | 0.00 | 0.33 | 85 | 1018.4 |
| 20260508193905 | 53 | 72 | 0.0 | 3.0 | 0.00 | 0.00 | 0.33 | 85 | 1018.4 |
| 20260508193851 | 53 | 76 | 0.0 | 3.0 | 0.00 | 0.00 | 0.33 | 85 | 1018.4 |
| 20260508193843 | 53 | 79 | 0.0 | 3.0 | 0.00 | 0.00 | 0.33 | 85 | 1018.5 |
| 20260508193346 | 53 | 101 | 0.0 | 3.0 | 0.00 | 0.00 | 0.33 | 85 | 1018.8 |
| 20260508193329 | 53 | 150 | 0.0 | 3.0 | 0.00 | 0.00 | 0.33 | 85 | 1018.5 |
| 20260508193313 | 53 | 164 | 0.0 | 3.0 | 0.00 | 0.00 | 0.33 | 85 | 1018.5 |
| 20260508193305 | 53 | 159 | 0.0 | 3.0 | 0.00 | 0.00 | 0.33 | 85 | 1018.4 |
| 20260508193027 | 53 | 50 | 0.0 | 3.0 | 0.00 | 0.00 | 0.33 | 85 | 1018.4 |
| 20260508193009 | 53 | 60 | 0.0 | 3.0 | 0.00 | 0.00 | 0.33 | 85 | 1018.5 |
| 20260508192951 | 53 | 64 | 1.0 | 3.0 | 0.00 | 0.00 | 0.33 | 85 | 1018.4 |
| 20260508192936 | 53 | 159 | 0.0 | 2.0 | 0.00 | 0.00 | 0.33 | 85 | 1018.4 |
| 20260508192927 | 53 | 165 | 0.0 | 2.0 | 0.00 | 0.00 | 0.33 | 85 | 1018.2 |
| 20260508192123 | 53 | 171 | 0.0 | 2.0 | 0.00 | 0.00 | 0.33 | 85 | 1018.3 |
| 20260508192043 | 53 | 162 | 0.0 | 2.0 | 0.00 | 0.00 | 0.33 | 85 | 1018.3 |
| 20260508192024 | 53 | 153 | 0.0 | 2.0 | 0.00 | 0.00 | 0.33 | 85 | 1018.3 |
| 20260508192000 | 53 | 165 | 0.0 | 2.0 | 0.00 | 0.00 | 0.33 | 85 | 1018.4 |
| 20260508191944 | 53 | 167 | 0.0 | 2.0 | 0.00 | 0.00 | 0.33 | 85 | 1018.3 |
| 20260508191612 | 53 | 182 | 0.0 | 1.0 | 0.00 | 0.00 | 0.33 | 85 | 1018.3 |
| 20260508191544 | 53 | 182 | 0.0 | 1.0 | 0.00 | 0.00 | 0.33 | 85 | 1018.3 |
| 20260508191511 | 53 | 180 | 0.0 | 1.0 | 0.00 | 0.00 | 0.33 | 85 | 1018.3 |
| 20260508191449 | 53 | 175 | 0.0 | 1.0 | 0.00 | 0.00 | 0.33 | 85 | 1018.5 |
| 20260508191432 | 53 | 182 | 0.0 | 1.0 | 0.00 | 0.00 | 0.33 | 85 | 1018.2 |
| 20260508191112 | 53 | 184 | 0.0 | 1.0 | 0.00 | 0.00 | 0.33 | 85 | 1018.3 |
| 20260508191044 | 53 | 184 | 0.0 | 1.0 | 0.00 | 0.00 | 0.33 | 85 | 1018.3 |
| 20260508191013 | 53 | 182 | 0.0 | 1.0 | 0.00 | 0.00 | 0.33 | 85 | 1018.3 |
| 20260508190911 | 53 | 184 | 0.0 | 1.0 | 0.00 | 0.00 | 0.33 | 85 | 1018.4 |
| 20260508190851 | 53 | 160 | 0.0 | 1.0 | 0.00 | 0.00 | 0.33 | 85 | 1018.7 |
| 20260508190835 | 53 | 181 | 0.0 | 1.0 | 0.00 | 0.00 | 0.33 | 85 | 1018.2 |
| 20260508190557 | 53 | 181 | 0.0 | 0.0 | 0.00 | 0.00 | 0.33 | 85 | 1018.5 |
| 20260508190512 | 53 | 182 | 0.0 | 0.0 | 0.00 | 0.00 | 0.33 | 85 | 1018.2 |
| 20260508190412 | 53 | 182 | 0.0 | 0.0 | 0.00 | 0.00 | 0.33 | 85 | 1018.3 |
| 20260508190312 | 53 | 183 | 0.0 | 0.0 | 0.00 | 0.00 | 0.33 | 85 | 1018.3 |
| 20260508190211 | 53 | 182 | 0.0 | 0.0 | 0.00 | 0.00 | 0.33 | 85 | 1018.3 |
| 20260508190114 | 53 | 182 | 0.0 | 0.0 | 0.00 | 0.00 | 0.33 | 85 | 1018.2 |
| 20260508190058 | 53 | 182 | 0.0 | 0.0 | 0.00 | 0.00 | 0.33 | 85 | 1018.2 |
| 20260508190011 | 53 | 182 | 0.0 | 0.0 | 0.00 | 0.00 | 0.33 | 85 | 1018.2 |
| 20260508185911 | 53 | 182 | 0.0 | 0.0 | 0.00 | 0.00 | 0.33 | 85 | 1018.5 |
| 20260508185859 | 53 | 182 | 0.0 | 0.0 | 0.00 | 0.00 | 0.33 | 85 | 1018.3 |
| 20260508185849 | 53 | 182 | 0.0 | 0.0 | 0.00 | 0.00 | 0.33 | 85 | 1018.3 |
| 20260508185832 | 53 | 182 | 0.0 | 0.0 | 0.00 | 0.00 | 0.33 | 85 | 1018.5 |
| 20260508185815 | 53 | 182 | 0.0 | 0.0 | 0.00 | 0.00 | 0.33 | 85 | 1018.3 |
| 20260508185547 | 53 | 181 | 0.0 | 0.0 | 0.00 | 0.00 | 0.33 | 85 | 1018.5 |
| 20260508185531 | 53 | 182 | 0.0 | 0.0 | 0.00 | 0.00 | 0.33 | 85 | 1018.4 |
| 20260508185212 | 53 | 182 | 0.0 | 0.0 | 0.00 | 0.00 | 0.33 | 85 | 1018.3 |
| 20260508185112 | 53 | 182 | 0.0 | 0.0 | 0.00 | 0.00 | 0.33 | 85 | 1018.3 |
| 20260508185033 | 53 | 182 | 0.0 | 0.0 | 0.00 | 0.00 | 0.33 | 85 | 1018.3 |
| 20260508185011 | 53 | 182 | 0.0 | 0.0 | 0.00 | 0.00 | 0.33 | 85 | 1018.2 |
| 20260508184912 | 53 | 182 | 0.0 | 0.0 | 0.00 | 0.00 | 0.33 | 85 | 1018.3 |
| 20260508184832 | 53 | 181 | 0.0 | 0.0 | 0.00 | 0.00 | 0.33 | 85 | 1018.2 |
| 20260508184825 | 53 | 181 | 0.0 | 0.0 | 0.00 | 0.00 | 0.33 | 85 | 1018.1 |
| 20260508184808 | 53 | 182 | 0.0 | 0.0 | 0.00 | 0.00 | 0.33 | 85 | 1018.2 |
| 20260508184750 | 53 | 181 | 0.0 | 0.0 | 0.00 | 0.00 | 0.33 | 85 | 1018.2 |
| 20260508184513 | 53 | 181 | 0.0 | 0.0 | 0.00 | 0.00 | 0.33 | 85 | 1018.1 |
| 20260508184426 | 53 | 181 | 0.0 | 0.0 | 0.00 | 0.00 | 0.33 | 85 | 1018.2 |
| 20260508184410 | 53 | 181 | 0.0 | 0.0 | 0.00 | 0.00 | 0.33 | 85 | 1018.2 |
| 20260508184355 | 53 | 181 | 0.0 | 0.0 | 0.00 | 0.00 | 0.33 | 85 | 1018.2 |
| 20260508184118 | 53 | 181 | 0.0 | 0.0 | 0.00 | 0.00 | 0.33 | 85 | 1018.1 |
| 20260508184110 | 53 | 181 | 0.0 | 0.0 | 0.00 | 0.00 | 0.33 | 85 | 1018.2 |
| 20260508184055 | 53 | 181 | 0.0 | 0.0 | 0.00 | 0.00 | 0.33 | 84 | 1018.2 |
| 20260508183820 | 53 | 181 | 0.0 | 0.0 | 0.00 | 0.00 | 0.33 | 84 | 1018.2 |
| 20260508183531 | 53 | 181 | 0.0 | 0.0 | 0.00 | 0.00 | 0.33 | 84 | 1018.2 |
| 20260508183501 | 53 | 181 | 0.0 | 0.0 | 0.00 | 0.00 | 0.33 | 84 | 1018.1 |
| 20260508183359 | 53 | 181 | 0.0 | 0.0 | 0.00 | 0.00 | 0.33 | 84 | 1018.1 |
| 20260508183339 | 53 | 181 | 0.0 | 0.0 | 0.00 | 0.00 | 0.33 | 84 | 1018.1 |
| 20260508183324 | 53 | 182 | 0.0 | 0.0 | 0.00 | 0.00 | 0.33 | 84 | 1017.9 |
| 20260508183251 | 53 | 181 | 0.0 | 0.0 | 0.00 | 0.00 | 0.33 | 84 | 1018.2 |
| 20260508183242 | 53 | 181 | 0.0 | 0.0 | 0.00 | 0.00 | 0.33 | 84 | 1018.1 |
| 20260508182659 | 53 | 174 | 0.0 | 0.0 | 0.00 | 0.00 | 0.33 | 84 | 1018.3 |
| 20260508182548 | 53 | 182 | 0.0 | 0.0 | 0.00 | 0.00 | 0.33 | 84 | 1018.0 |
| 20260508182538 | 54 | 178 | 0.0 | 0.0 | 0.00 | 0.00 | 0.33 | 83 | 1017.9 |
| 20260508182532 | 53 | 183 | 0.0 | 0.0 | 0.00 | 0.00 | 0.33 | 84 | 1018.0 |
| 20260508182526 | 54 | 161 | 0.0 | 0.0 | 0.00 | 0.00 | 0.33 | 84 | 1017.8 |
| 20260508182516 | 53 | 182 | 0.0 | 0.0 | 0.00 | 0.00 | 0.33 | 84 | 1018.1 |
| 20260508182501 | 53 | 179 | 0.0 | 0.0 | 0.00 | 0.00 | 0.33 | 84 | 1018.0 |
| 20260508182445 | 53 | 177 | 0.0 | 0.0 | 0.00 | 0.00 | 0.33 | 84 | 1017.9 |
| 20260508182429 | 54 | 180 | 0.0 | 0.0 | 0.00 | 0.00 | 0.33 | 84 | 1017.8 |
| 20260508182155 | 54 | 187 | 0.0 | 0.0 | 0.00 | 0.00 | 0.33 | 84 | 1017.9 |
| 20260508182144 | 53 | 184 | 0.0 | 0.0 | 0.00 | 0.00 | 0.33 | 84 | 1018.1 |
| 20260508182127 | 53 | 181 | 0.0 | 0.0 | 0.00 | 0.00 | 0.33 | 84 | 1017.9 |
| 20260508182112 | 53 | 177 | 0.0 | 0.0 | 0.00 | 0.00 | 0.33 | 83 | 1017.9 |
| 20260508182056 | 53 | 180 | 0.0 | 0.0 | 0.00 | 0.00 | 0.33 | 83 | 1017.8 |
| 20260508182039 | 53 | 178 | 0.0 | 0.0 | 0.00 | 0.00 | 0.33 | 83 | 1017.9 |
| 20260508181812 | 54 | 169 | 0.0 | 0.0 | 0.00 | 0.00 | 0.33 | 84 | 1017.8 |
| 20260508181755 | 54 | 179 | 0.0 | 0.0 | 0.00 | 0.00 | 0.33 | 84 | 1018.0 |
| 20260508181740 | 54 | 181 | 0.0 | 0.0 | 0.00 | 0.00 | 0.33 | 84 | 1017.9 |
| 20260508181724 | 54 | 179 | 0.0 | 0.0 | 0.00 | 0.00 | 0.33 | 84 | 1017.8 |
| 20260508181708 | 54 | 178 | 0.0 | 0.0 | 0.00 | 0.00 | 0.33 | 84 | 1017.8 |
| 20260508181440 | 54 | 165 | 0.0 | 0.0 | 0.00 | 0.00 | 0.33 | 84 | 1017.8 |
| 20260508181424 | 54 | 181 | 0.0 | 0.0 | 0.00 | 0.00 | 0.33 | 83 | 1017.9 |
| 20260508181408 | 54 | 182 | 0.0 | 0.0 | 0.00 | 0.00 | 0.33 | 84 | 1017.6 |
| 20260508181353 | 54 | 181 | 0.0 | 0.0 | 0.00 | 0.00 | 0.33 | 84 | 1017.9 |
| 20260508181121 | 54 | 185 | 0.0 | 0.0 | 0.00 | 0.00 | 0.33 | 84 | 1017.9 |
| 20260508181111 | 54 | 182 | 0.0 | 0.0 | 0.00 | 0.00 | 0.33 | 83 | 1017.8 |
| 20260508180616 | 54 | 163 | 0.0 | 0.0 | 0.00 | 0.00 | 0.33 | 84 | 1017.9 |
| 20260508180342 | 54 | 183 | 0.0 | 0.0 | 0.00 | 0.00 | 0.33 | 84 | 1017.8 |
| 20260508180111 | 54 | 185 | 0.0 | 0.0 | 0.00 | 0.00 | 0.33 | 84 | 1018.1 |
| 20260508180055 | 54 | 184 | 0.0 | 0.0 | 0.00 | 0.00 | 0.33 | 84 | 1017.9 |
| 20260508175808 | 54 | 179 | 0.0 | 0.0 | 0.00 | 0.00 | 0.33 | 84 | 1017.7 |
| 20260508175757 | 54 | 167 | 0.0 | 0.0 | 0.00 | 0.00 | 0.33 | 84 | 1017.8 |
| 20260508175742 | 54 | 166 | 0.0 | 0.0 | 0.00 | 0.00 | 0.33 | 84 | 1017.7 |
| 20260508175505 | 54 | 185 | 0.0 | 0.0 | 0.00 | 0.00 | 0.33 | 84 | 1017.8 |
| 20260508175435 | 54 | 184 | 0.0 | 0.0 | 0.00 | 0.00 | 0.33 | 84 | 1017.4 |
| 20260508174944 | 54 | 180 | 0.0 | 0.0 | 0.00 | 0.00 | 0.33 | 84 | 1017.8 |
| 20260508174708 | 54 | 184 | 0.0 | 0.0 | 0.00 | 0.00 | 0.33 | 83 | 1017.6 |
| 20260508174655 | 54 | 182 | 0.0 | 0.0 | 0.00 | 0.00 | 0.33 | 84 | 1017.6 |
| 20260508174645 | 54 | 184 | 0.0 | 0.0 | 0.00 | 0.00 | 0.33 | 83 | 1017.6 |
| 20260508174407 | 54 | 182 | 0.0 | 0.0 | 0.00 | 0.00 | 0.33 | 83 | 1017.6 |
| 20260508174123 | 54 | 184 | 0.0 | 0.0 | 0.00 | 0.00 | 0.33 | 83 | 1017.6 |
| 20260508174110 | 54 | 181 | 0.0 | 0.0 | 0.00 | 0.00 | 0.33 | 83 | 1017.6 |
| 20260508174059 | 54 | 182 | 0.0 | 0.0 | 0.00 | 0.00 | 0.33 | 83 | 1017.4 |
| 20260508174043 | 54 | 192 | 0.0 | 0.0 | 0.00 | 0.00 | 0.33 | 83 | 1017.5 |
| 20260508173807 | 54 | 181 | 0.0 | 0.0 | 0.00 | 0.00 | 0.33 | 83 | 1017.6 |
| 20260508173531 | 54 | 182 | 0.0 | 0.0 | 0.00 | 0.00 | 0.33 | 84 | 1017.7 |
| 20260508173447 | 54 | 165 | 0.0 | 0.0 | 0.00 | 0.00 | 0.33 | 84 | 1017.5 |
| 20260508173347 | 54 | 182 | 0.0 | 0.0 | 0.00 | 0.00 | 0.33 | 84 | 1017.6 |
| 20260508173248 | 55 | 177 | 0.0 | 0.0 | 0.00 | 0.00 | 0.33 | 83 | 1017.4 |
| 20260508173225 | 55 | 172 | 0.0 | 0.0 | 0.00 | 0.00 | 0.33 | 83 | 1017.4 |
| 20260508173210 | 55 | 184 | 0.0 | 0.0 | 0.00 | 0.00 | 0.33 | 83 | 1017.5 |
| 20260508173155 | 55 | 183 | 0.0 | 0.0 | 0.00 | 0.00 | 0.33 | 83 | 1017.5 |
| 20260508173145 | 55 | 182 | 0.0 | 0.0 | 0.00 | 0.00 | 0.33 | 83 | 1017.5 |
| 20260508172908 | 55 | 183 | 0.0 | 0.0 | 0.00 | 0.00 | 0.33 | 83 | 1017.4 |
| 20260508172533 | 55 | 182 | 0.0 | 0.0 | 0.00 | 0.00 | 0.33 | 83 | 1017.4 |
| 20260508172523 | 55 | 185 | 0.0 | 0.0 | 0.00 | 0.00 | 0.33 | 83 | 1017.5 |
| 20260508172507 | 55 | 182 | 0.0 | 0.0 | 0.00 | 0.00 | 0.33 | 83 | 1017.3 |
| 20260508172147 | 55 | 184 | 0.0 | 0.0 | 0.00 | 0.00 | 0.33 | 83 | 1017.4 |
| 20260508172047 | 55 | 181 | 0.0 | 0.0 | 0.00 | 0.00 | 0.33 | 83 | 1017.2 |
| 20260508172031 | 55 | 180 | 0.0 | 0.0 | 0.00 | 0.00 | 0.33 | 83 | 1017.2 |
| 20260508172013 | 55 | 181 | 0.0 | 0.0 | 0.00 | 0.00 | 0.33 | 83 | 1017.3 |
| 20260508171958 | 55 | 182 | 0.0 | 0.0 | 0.00 | 0.00 | 0.33 | 83 | 1017.3 |
| 20260508171941 | 55 | 185 | 0.0 | 0.0 | 0.00 | 0.00 | 0.33 | 83 | 1017.3 |
| 20260508171926 | 55 | 185 | 0.0 | 0.0 | 0.00 | 0.00 | 0.33 | 83 | 1017.5 |
| 20260508171857 | 55 | 184 | 0.0 | 0.0 | 0.00 | 0.00 | 0.33 | 82 | 1017.3 |
| 20260508171847 | 55 | 184 | 0.0 | 0.0 | 0.00 | 0.00 | 0.33 | 82 | 1017.2 |
| 20260508171032 | 55 | 184 | 0.0 | 0.0 | 0.00 | 0.00 | 0.33 | 82 | 1017.5 |
| 20260508170947 | 55 | 185 | 0.0 | 0.0 | 0.00 | 0.00 | 0.33 | 82 | 1017.4 |
| 20260508170847 | 55 | 185 | 0.0 | 0.0 | 0.00 | 0.00 | 0.33 | 82 | 1017.3 |
| 20260508170747 | 55 | 185 | 0.0 | 0.0 | 0.00 | 0.00 | 0.33 | 81 | 1017.3 |
| 20260508170647 | 55 | 184 | 0.0 | 0.0 | 0.00 | 0.00 | 0.33 | 81 | 1017.4 |
| 20260508170631 | 55 | 184 | 0.0 | 0.0 | 0.00 | 0.00 | 0.33 | 81 | 1017.3 |
| 20260508170608 | 55 | 180 | 0.0 | 0.0 | 0.00 | 0.00 | 0.33 | 81 | 1017.2 |
| 20260508170558 | 55 | 165 | 0.0 | 0.0 | 0.00 | 0.00 | 0.33 | 81 | 1017.3 |
| 20260508170541 | 55 | 187 | 0.0 | 0.0 | 0.00 | 0.00 | 0.33 | 81 | 1017.5 |
| 20260508170307 | 55 | 175 | 0.0 | 0.0 | 0.00 | 0.00 | 0.33 | 81 | 1017.5 |
| 20260508170251 | 55 | 184 | 0.0 | 0.0 | 0.00 | 0.00 | 0.33 | 81 | 1017.3 |
| 20260508165947 | 55 | 185 | 0.0 | 0.0 | 0.00 | 0.00 | 0.33 | 81 | 1017.3 |
| 20260508165835 | 55 | 185 | 0.0 | 0.0 | 0.00 | 0.00 | 0.33 | 81 | 1017.4 |
| 20260508165736 | 55 | 185 | 0.0 | 0.0 | 0.00 | 0.00 | 0.33 | 80 | 1017.3 |
| 20260508165635 | 55 | 182 | 0.0 | 0.0 | 0.00 | 0.00 | 0.33 | 80 | 1017.4 |
| 20260508165536 | 55 | 184 | 0.0 | 0.0 | 0.00 | 0.00 | 0.33 | 80 | 1017.1 |
| 20260508165435 | 55 | 185 | 0.0 | 0.0 | 0.00 | 0.00 | 0.33 | 80 | 1017.1 |
| 20260508165335 | 55 | 182 | 0.0 | 0.0 | 0.00 | 0.00 | 0.33 | 80 | 1017.1 |
| 20260508165235 | 55 | 182 | 0.0 | 0.0 | 0.00 | 0.00 | 0.33 | 80 | 1017.5 |
| 20260508165135 | 55 | 183 | 0.0 | 0.0 | 0.00 | 0.00 | 0.33 | 80 | 1017.3 |
| 20260508165034 | 55 | 183 | 0.0 | 0.0 | 0.00 | 0.00 | 0.33 | 80 | 1017.2 |
| 20260508164212 | 55 | 179 | 0.0 | 0.0 | 0.00 | 0.00 | 0.33 | 81 | 1017.2 |
| 20260508164112 | 55 | 178 | 0.0 | 0.0 | 0.00 | 0.00 | 0.33 | 81 | 1017.3 |
| 20260508164058 | 55 | 177 | 0.0 | 0.0 | 0.00 | 0.00 | 0.33 | 81 | 1017.3 |
| 20260508164012 | 56 | 181 | 0.0 | 0.0 | 0.00 | 0.00 | 0.33 | 81 | 1017.4 |
| 20260508163911 | 56 | 173 | 0.0 | 0.0 | 0.00 | 0.00 | 0.33 | 81 | 1017.3 |
| 20260508163811 | 56 | 184 | 0.0 | 0.0 | 0.00 | 0.00 | 0.33 | 82 | 1017.3 |
| 20260508163713 | 56 | 184 | 0.0 | 0.0 | 0.00 | 0.00 | 0.33 | 82 | 1017.1 |
| 20260508163612 | 56 | 183 | 0.0 | 0.0 | 0.00 | 0.00 | 0.33 | 82 | 1017.2 |
| 20260508163559 | 56 | 183 | 0.0 | 0.0 | 0.00 | 0.00 | 0.33 | 82 | 1017.2 |
| 20260508163548 | 56 | 184 | 0.0 | 0.0 | 0.00 | 0.00 | 0.33 | 82 | 1017.5 |
| 20260508163533 | 56 | 184 | 0.0 | 0.0 | 0.00 | 0.00 | 0.33 | 81 | 1017.5 |
| 20260508163518 | 56 | 183 | 0.0 | 0.0 | 0.00 | 0.00 | 0.33 | 81 | 1017.5 |
| 20260508163240 | 55 | 182 | 0.0 | 0.0 | 0.00 | 0.00 | 0.33 | 81 | 1017.2 |
| 20260508163229 | 55 | 182 | 0.0 | 0.0 | 0.00 | 0.00 | 0.33 | 81 | 1017.2 |
| 20260508162912 | 55 | 182 | 0.0 | 0.0 | 0.00 | 0.00 | 0.33 | 81 | 1017.3 |
| 20260508162852 | 56 | 181 | 0.0 | 0.0 | 0.00 | 0.00 | 0.33 | 81 | 1017.3 |
| 20260508162844 | 55 | 182 | 0.0 | 0.0 | 0.00 | 0.00 | 0.33 | 81 | 1017.4 |
| 20260508162829 | 55 | 176 | 0.0 | 0.0 | 0.00 | 0.00 | 0.33 | 80 | 1017.5 |
| 20260508162812 | 56 | 181 | 0.0 | 0.0 | 0.00 | 0.00 | 0.33 | 81 | 1017.3 |
| 20260508162512 | 55 | 183 | 0.0 | 0.0 | 0.00 | 0.00 | 0.33 | 81 | 1017.3 |
| 20260508162412 | 55 | 183 | 0.0 | 0.0 | 0.00 | 0.00 | 0.33 | 81 | 1017.3 |
| 20260508162312 | 55 | 184 | 0.0 | 0.0 | 0.00 | 0.00 | 0.33 | 81 | 1017.4 |
| 20260508162213 | 55 | 183 | 0.0 | 0.0 | 0.00 | 0.00 | 0.33 | 81 | 1017.3 |
| 20260508162113 | 55 | 185 | 0.0 | 0.0 | 0.00 | 0.00 | 0.33 | 81 | 1017.4 |
| 20260508162101 | 55 | 185 | 0.0 | 0.0 | 0.00 | 0.00 | 0.33 | 81 | 1017.4 |
| 20260508162049 | 55 | 185 | 0.0 | 0.0 | 0.00 | 0.00 | 0.33 | 81 | 1017.5 |
| 20260508162032 | 55 | 185 | 0.0 | 0.0 | 0.00 | 0.00 | 0.33 | 81 | 1017.3 |
| 20260508161713 | 55 | 185 | 0.0 | 0.0 | 0.00 | 0.00 | 0.33 | 81 | 1017.4 |
| 20260508161655 | 55 | 185 | 0.0 | 0.0 | 0.00 | 0.00 | 0.33 | 81 | 1017.2 |
| 20260508161642 | 55 | 185 | 0.0 | 0.0 | 0.00 | 0.00 | 0.33 | 81 | 1017.2 |
| 20260508161632 | 55 | 185 | 0.0 | 0.0 | 0.00 | 0.00 | 0.33 | 81 | 1017.4 |
| 20260508161312 | 55 | 182 | 0.0 | 0.0 | 0.00 | 0.00 | 0.33 | 81 | 1017.4 |
| 20260508161211 | 55 | 175 | 0.0 | 0.0 | 0.00 | 0.00 | 0.33 | 81 | 1017.5 |
| 20260508161113 | 55 | 179 | 0.0 | 0.0 | 0.00 | 0.00 | 0.33 | 81 | 1017.3 |
| 20260508161057 | 55 | 182 | 0.0 | 0.0 | 0.00 | 0.00 | 0.33 | 81 | 1017.3 |
| 20260508161012 | 55 | 172 | 0.0 | 0.0 | 0.00 | 0.00 | 0.33 | 81 | 1017.5 |
| 20260508160913 | 55 | 182 | 0.0 | 0.0 | 0.00 | 0.00 | 0.33 | 81 | 1017.4 |
| 20260508160812 | 55 | 185 | 0.0 | 0.0 | 0.00 | 0.00 | 0.33 | 81 | 1017.4 |
| 20260508160711 | 55 | 181 | 0.0 | 0.0 | 0.00 | 0.00 | 0.33 | 81 | 1017.3 |
| 20260508160612 | 55 | 186 | 0.0 | 0.0 | 0.00 | 0.00 | 0.33 | 81 | 1017.3 |
| 20260508160556 | 55 | 186 | 0.0 | 0.0 | 0.00 | 0.00 | 0.33 | 81 | 1017.3 |
| 20260508160512 | 55 | 186 | 0.0 | 0.0 | 0.00 | 0.00 | 0.33 | 81 | 1017.6 |
| 20260508160444 | 55 | 184 | 0.0 | 0.0 | 0.00 | 0.00 | 0.33 | 81 | 1017.5 |
| 20260508160429 | 55 | 182 | 0.0 | 0.0 | 0.00 | 0.00 | 0.33 | 81 | 1017.7 |
| 20260508160412 | 55 | 185 | 0.0 | 0.0 | 0.00 | 0.00 | 0.33 | 81 | 1017.3 |
| 20260508160356 | 55 | 185 | 0.0 | 0.0 | 0.00 | 0.00 | 0.33 | 81 | 1017.4 |
| 20260508160345 | 55 | 185 | 0.0 | 0.0 | 0.00 | 0.00 | 0.33 | 81 | 1017.4 |
| 20260508160332 | 55 | 188 | 0.0 | 0.0 | 0.00 | 0.00 | 0.33 | 81 | 1017.3 |
| 20260508155835 | 55 | 184 | 0.0 | 0.0 | 0.00 | 0.00 | 0.33 | 82 | 1017.3 |
| 20260508155603 | 55 | 183 | 0.0 | 0.0 | 0.00 | 0.00 | 0.33 | 82 | 1017.2 |
| 20260508155552 | 55 | 184 | 0.0 | 0.0 | 0.00 | 0.00 | 0.33 | 82 | 1017.3 |
| 20260508155537 | 55 | 185 | 0.0 | 0.0 | 0.00 | 0.00 | 0.33 | 82 | 1017.4 |
| 20260508155212 | 56 | 183 | 0.0 | 0.0 | 0.00 | 0.00 | 0.33 | 83 | 1017.3 |
| 20260508155111 | 55 | 182 | 0.0 | 0.0 | 0.00 | 0.00 | 0.33 | 83 | 1017.3 |
| 20260508155057 | 55 | 181 | 0.0 | 0.0 | 0.00 | 0.00 | 0.33 | 83 | 1017.3 |
| 20260508155012 | 55 | 183 | 0.0 | 0.0 | 0.00 | 0.00 | 0.33 | 83 | 1017.4 |
| 20260508154901 | 55 | 177 | 0.0 | 0.0 | 0.00 | 0.00 | 0.33 | 82 | 1017.3 |
| 20260508154843 | 55 | 165 | 0.0 | 0.0 | 0.00 | 0.00 | 0.33 | 82 | 1017.4 |
| 20260508154826 | 55 | 184 | 0.0 | 0.0 | 0.00 | 0.00 | 0.33 | 81 | 1017.5 |
| 20260508154600 | 55 | 181 | 0.0 | 0.0 | 0.00 | 0.00 | 0.33 | 81 | 1017.1 |
| 20260508154527 | 56 | 183 | 0.0 | 0.0 | 0.00 | 0.00 | 0.33 | 80 | 1017.5 |
| 20260508154523 | 56 | 169 | 0.0 | 0.0 | 0.00 | 0.00 | 0.33 | 80 | 1017.3 |
| 20260508154518 | 56 | 182 | 0.0 | 0.0 | 0.00 | 0.00 | 0.33 | 80 | 1017.3 |
| 20260508154512 | 55 | 182 | 0.0 | 0.0 | 0.00 | 0.00 | 0.33 | 81 | 1017.6 |
| 20260508154456 | 55 | 169 | 0.0 | 0.0 | 0.00 | 0.00 | 0.33 | 81 | 1017.5 |
| 20260508154440 | 55 | 187 | 0.0 | 0.0 | 0.00 | 0.00 | 0.33 | 81 | 1017.3 |
| 20260508154424 | 55 | 185 | 0.0 | 0.0 | 0.00 | 0.00 | 0.33 | 81 | 1017.3 |
| 20260508154403 | 55 | 185 | 0.0 | 0.0 | 0.00 | 0.00 | 0.33 | 81 | 1017.4 |
| 20260508154346 | 56 | 182 | 0.0 | 0.0 | 0.00 | 0.00 | 0.33 | 81 | 1017.4 |
| 20260508154110 | 55 | 180 | 0.0 | 0.0 | 0.00 | 0.00 | 0.33 | 81 | 1017.5 |
| 20260508154056 | 56 | 180 | 0.0 | 0.0 | 0.00 | 0.00 | 0.33 | 81 | 1017.3 |
| 20260508154039 | 56 | 169 | 0.0 | 0.0 | 0.00 | 0.00 | 0.33 | 80 | 1017.3 |
| 20260508153813 | 56 | 167 | 0.0 | 0.0 | 0.00 | 0.00 | 0.33 | 81 | 1017.5 |
| 20260508153757 | 56 | 167 | 0.0 | 0.0 | 0.00 | 0.00 | 0.33 | 80 | 1017.3 |
| 20260508153741 | 56 | 185 | 0.0 | 0.0 | 0.00 | 0.00 | 0.33 | 81 | 1017.4 |
| 20260508153252 | 56 | 182 | 0.0 | 0.0 | 0.00 | 0.00 | 0.33 | 80 | 1017.3 |
| 20260508153234 | 56 | 183 | 0.0 | 0.0 | 0.00 | 0.00 | 0.33 | 80 | 1017.3 |
| 20260508153218 | 56 | 179 | 0.0 | 0.0 | 0.00 | 0.00 | 0.33 | 80 | 1017.5 |
| 20260508152942 | 56 | 190 | 0.0 | 0.0 | 0.00 | 0.00 | 0.33 | 80 | 1017.6 |
| 20260508152715 | 56 | 190 | 0.0 | 0.0 | 0.00 | 0.00 | 0.33 | 80 | 1017.3 |
| 20260508152700 | 56 | 190 | 0.0 | 0.0 | 0.00 | 0.00 | 0.33 | 80 | 1017.2 |
| 20260508152644 | 56 | 191 | 0.0 | 0.0 | 0.00 | 0.00 | 0.33 | 80 | 1017.5 |
| 20260508152408 | 56 | 183 | 0.0 | 0.0 | 0.00 | 0.00 | 0.33 | 80 | 1017.4 |
| 20260508152351 | 56 | 182 | 0.0 | 0.0 | 0.00 | 0.00 | 0.33 | 80 | 1017.3 |
| 20260508152123 | 56 | 185 | 0.0 | 0.0 | 0.00 | 0.00 | 0.33 | 79 | 1017.4 |
| 20260508152106 | 56 | 188 | 0.0 | 0.0 | 0.00 | 0.00 | 0.33 | 79 | 1017.3 |
| 20260508151842 | 56 | 187 | 0.0 | 0.0 | 0.00 | 0.00 | 0.33 | 80 | 1017.5 |
| 20260508151826 | 56 | 186 | 0.0 | 0.0 | 0.00 | 0.00 | 0.33 | 80 | 1017.5 |
| 20260508151809 | 56 | 183 | 0.0 | 0.0 | 0.00 | 0.00 | 0.33 | 80 | 1017.5 |
| 20260508151500 | 56 | 189 | 0.0 | 0.0 | 0.00 | 0.00 | 0.33 | 80 | 1017.5 |
| 20260508151402 | 56 | 188 | 0.0 | 0.0 | 0.00 | 0.00 | 0.33 | 80 | 1017.4 |
| 20260508151351 | 56 | 187 | 0.0 | 0.0 | 0.00 | 0.00 | 0.33 | 81 | 1017.6 |
| 20260508151341 | 56 | 190 | 0.0 | 0.0 | 0.00 | 0.00 | 0.33 | 81 | 1017.3 |
| 20260508151326 | 56 | 189 | 0.0 | 0.0 | 0.00 | 0.00 | 0.33 | 81 | 1017.4 |
| 20260508151309 | 56 | 187 | 0.0 | 0.0 | 0.00 | 0.00 | 0.33 | 81 | 1017.6 |
| 20260508151001 | 56 | 186 | 0.0 | 0.0 | 0.00 | 0.00 | 0.33 | 81 | 1017.4 |
| 20260508150937 | 55 | 182 | 0.0 | 0.0 | 0.00 | 0.00 | 0.33 | 81 | 1017.4 |
| 20260508150920 | 55 | 184 | 0.0 | 0.0 | 0.00 | 0.00 | 0.33 | 81 | 1017.5 |
| 20260508150601 | 56 | 171 | 0.0 | 0.0 | 0.00 | 0.00 | 0.33 | 81 | 1017.3 |
| 20260508150500 | 56 | 180 | 0.0 | 0.0 | 0.00 | 0.00 | 0.33 | 81 | 1017.3 |
| 20260508150419 | 56 | 185 | 0.0 | 0.0 | 0.00 | 0.00 | 0.33 | 81 | 1017.2 |
| 20260508150412 | 56 | 179 | 0.0 | 0.0 | 0.00 | 0.00 | 0.33 | 81 | 1017.4 |
| 20260508150356 | 56 | 194 | 0.0 | 0.0 | 0.00 | 0.00 | 0.33 | 82 | 1017.5 |
| 20260508150340 | 56 | 198 | 0.0 | 0.0 | 0.00 | 0.00 | 0.33 | 81 | 1017.4 |
| 20260508150322 | 56 | 185 | 0.0 | 0.0 | 0.00 | 0.00 | 0.33 | 81 | 1017.2 |
| 20260508150001 | 56 | 181 | 0.0 | 1.0 | 0.00 | 0.00 | 0.33 | 82 | 1017.4 |
| 20260508145900 | 56 | 183 | 0.0 | 1.0 | 0.00 | 0.00 | 0.33 | 81 | 1017.2 |
| 20260508145759 | 56 | 176 | 0.0 | 1.0 | 0.00 | 0.00 | 0.33 | 81 | 1017.3 |
| 20260508145701 | 56 | 182 | 0.0 | 1.0 | 0.00 | 0.00 | 0.33 | 81 | 1017.2 |
| 20260508145600 | 56 | 176 | 0.0 | 1.0 | 0.00 | 0.00 | 0.33 | 81 | 1017.3 |
| 20260508145500 | 56 | 161 | 0.0 | 1.0 | 0.00 | 0.00 | 0.33 | 81 | 1017.3 |
| 20260508145401 | 56 | 173 | 0.0 | 1.0 | 0.00 | 0.00 | 0.33 | 81 | 1017.4 |
| 20260508145306 | 56 | 191 | 0.0 | 1.0 | 0.00 | 0.00 | 0.33 | 81 | 1017.4 |
| 20260508145246 | 56 | 162 | 0.0 | 1.0 | 0.00 | 0.00 | 0.33 | 81 | 1017.3 |
| 20260508145223 | 56 | 154 | 0.0 | 1.0 | 0.00 | 0.00 | 0.33 | 81 | 1017.3 |
| 20260508144901 | 56 | 184 | 0.0 | 0.0 | 0.00 | 0.00 | 0.33 | 81 | 1017.4 |
| 20260508144801 | 56 | 188 | 0.0 | 0.0 | 0.00 | 0.00 | 0.33 | 81 | 1017.4 |
| 20260508144745 | 56 | 190 | 0.0 | 0.0 | 0.00 | 0.00 | 0.33 | 82 | 1017.3 |
| 20260508144722 | 56 | 197 | 0.0 | 0.0 | 0.00 | 0.00 | 0.33 | 82 | 1017.3 |
| 20260508144401 | 56 | 192 | 0.0 | 2.0 | 0.00 | 0.00 | 0.33 | 82 | 1017.6 |
| 20260508144339 | 56 | 189 | 0.0 | 2.0 | 0.00 | 0.00 | 0.33 | 82 | 1017.2 |
| 20260508144323 | 56 | 190 | 0.0 | 2.0 | 0.00 | 0.00 | 0.33 | 82 | 1017.5 |
| 20260508144300 | 56 | 191 | 0.0 | 2.0 | 0.00 | 0.00 | 0.33 | 82 | 1017.4 |
| 20260508144243 | 56 | 190 | 0.0 | 2.0 | 0.00 | 0.00 | 0.33 | 82 | 1017.4 |
| 20260508143700 | 56 | 174 | 0.0 | 2.0 | 0.00 | 0.00 | 0.33 | 82 | 1017.3 |
| 20260508143638 | 56 | 178 | 0.0 | 2.0 | 0.00 | 0.00 | 0.33 | 82 | 1017.1 |
| 20260508143621 | 56 | 185 | 0.0 | 2.0 | 0.00 | 0.00 | 0.33 | 82 | 1017.2 |
| 20260508143300 | 56 | 183 | 0.0 | 3.0 | 0.00 | 0.00 | 0.33 | 82 | 1017.3 |
| 20260508143223 | 56 | 177 | 0.0 | 3.0 | 0.00 | 0.00 | 0.33 | 81 | 1017.3 |
| 20260508143201 | 56 | 175 | 0.0 | 3.0 | 0.00 | 0.00 | 0.33 | 82 | 1017.1 |
| 20260508143143 | 56 | 156 | 0.0 | 3.0 | 0.00 | 0.00 | 0.33 | 81 | 1017.2 |
| 20260508143128 | 56 | 183 | 0.0 | 3.0 | 0.00 | 0.00 | 0.33 | 81 | 1017.4 |
| 20260508143112 | 56 | 183 | 0.0 | 3.0 | 0.00 | 0.00 | 0.33 | 81 | 1017.4 |
| 20260508143057 | 56 | 148 | 0.0 | 3.0 | 0.00 | 0.00 | 0.33 | 80 | 1017.4 |
| 20260508142830 | 56 | 182 | 0.0 | 3.0 | 0.00 | 0.00 | 0.33 | 81 | 1017.4 |
| 20260508142815 | 56 | 178 | 0.0 | 3.0 | 0.00 | 0.00 | 0.33 | 81 | 1017.4 |
| 20260508142759 | 57 | 162 | 0.0 | 3.0 | 0.00 | 0.00 | 0.33 | 81 | 1017.5 |
| 20260508142743 | 57 | 131 | 0.0 | 0.0 | 0.00 | 0.00 | 0.33 | 80 | 1017.3 |
| 20260508142256 | 57 | 162 | 0.0 | 0.0 | 0.00 | 0.00 | 0.33 | 82 | 1017.5 |
| 20260508142239 | 56 | 189 | 0.0 | 0.0 | 0.00 | 0.00 | 0.33 | 84 | 1017.4 |
| 20260508142223 | 56 | 184 | 0.0 | 0.0 | 0.00 | 0.00 | 0.33 | 84 | 1017.3 |
| 20260508141948 | 55 | 182 | 0.0 | 0.0 | 0.00 | 0.00 | 0.33 | 85 | 1017.4 |
| 20260508141721 | 55 | 190 | 0.0 | 0.0 | 0.00 | 0.00 | 0.33 | 84 | 1017.4 |
| 20260508141437 | 55 | 154 | 0.0 | 0.0 | 0.00 | 0.00 | 0.33 | 85 | 1017.4 |
| 20260508141421 | 55 | 174 | 0.0 | 0.0 | 0.00 | 0.00 | 0.33 | 85 | 1017.3 |
| 20260508141138 | 55 | 178 | 0.0 | 0.0 | 0.00 | 0.00 | 0.33 | 85 | 1017.3 |
| 20260508141121 | 55 | 165 | 0.0 | 0.0 | 0.00 | 0.00 | 0.33 | 85 | 1017.6 |
| 20260508140806 | 55 | 180 | 0.0 | 0.0 | 0.00 | 0.00 | 0.33 | 86 | 1017.5 |
| 20260508140701 | 55 | 185 | 0.0 | 0.0 | 0.00 | 0.00 | 0.33 | 86 | 1017.4 |
| 20260508140600 | 55 | 180 | 0.0 | 0.0 | 0.00 | 0.00 | 0.33 | 86 | 1017.5 |
| 20260508140537 | 55 | 174 | 0.0 | 0.0 | 0.00 | 0.00 | 0.33 | 86 | 1017.5 |
| 20260508140522 | 55 | 119 | 0.0 | 0.0 | 0.00 | 0.00 | 0.33 | 85 | 1017.4 |
| 20260508140213 | 54 | 190 | 0.0 | 3.0 | 0.00 | 0.00 | 0.33 | 86 | 1017.3 |
| 20260508140151 | 54 | 143 | 0.0 | 3.0 | 0.00 | 0.00 | 0.33 | 86 | 1017.3 |
| 20260508140119 | 54 | 181 | 0.0 | 3.0 | 0.00 | 0.00 | 0.33 | 86 | 1017.2 |
| 20260508135801 | 55 | 175 | 0.0 | 3.0 | 0.00 | 0.00 | 0.33 | 86 | 1017.4 |
| 20260508135700 | 55 | 181 | 0.0 | 3.0 | 0.00 | 0.00 | 0.33 | 86 | 1017.4 |
| 20260508135600 | 55 | 174 | 0.0 | 3.0 | 0.00 | 0.00 | 0.33 | 86 | 1017.5 |
| 20260508135500 | 55 | 176 | 0.0 | 3.0 | 0.00 | 0.00 | 0.33 | 86 | 1017.5 |
| 20260508135401 | 55 | 192 | 0.0 | 3.0 | 0.00 | 0.00 | 0.33 | 86 | 1017.4 |
| 20260508135305 | 55 | 235 | 1.0 | 3.0 | 0.00 | 0.00 | 0.33 | 86 | 1017.3 |
| 20260508135202 | 55 | 190 | 0.0 | 1.0 | 0.00 | 0.00 | 0.33 | 86 | 1017.5 |
| 20260508135125 | 55 | 188 | 0.0 | 1.0 | 0.00 | 0.00 | 0.33 | 86 | 1017.5 |
| 20260508135108 | 55 | 185 | 0.0 | 1.0 | 0.00 | 0.00 | 0.33 | 85 | 1017.6 |
| 20260508135051 | 55 | 150 | 0.0 | 1.0 | 0.00 | 0.00 | 0.33 | 85 | 1017.5 |
| 20260508135036 | 56 | 198 | 0.0 | 1.0 | 0.00 | 0.00 | 0.33 | 85 | 1017.4 |
| 20260508134549 | 55 | 185 | 0.0 | 1.0 | 0.00 | 0.00 | 0.33 | 86 | 1017.4 |
| 20260508134448 | 55 | 152 | 0.0 | 1.0 | 0.00 | 0.00 | 0.33 | 86 | 1017.5 |
| 20260508134425 | 55 | 166 | 0.0 | 1.0 | 0.00 | 0.00 | 0.33 | 86 | 1017.2 |
| 20260508134408 | 55 | 162 | 0.0 | 1.0 | 0.00 | 0.00 | 0.33 | 85 | 1017.7 |
| 20260508134048 | 55 | 169 | 0.0 | 1.0 | 0.00 | 0.00 | 0.33 | 86 | 1017.4 |
| 20260508133948 | 55 | 111 | 0.0 | 0.0 | 0.00 | 0.00 | 0.33 | 86 | 1017.5 |
| 20260508133849 | 55 | 185 | 0.0 | 1.0 | 0.00 | 0.00 | 0.33 | 86 | 1017.3 |
| 20260508133749 | 55 | 187 | 0.0 | 1.0 | 0.00 | 0.00 | 0.33 | 86 | 1017.2 |
| 20260508133648 | 55 | 173 | 0.0 | 1.0 | 0.00 | 0.00 | 0.33 | 86 | 1017.4 |
| 20260508133620 | 55 | 185 | 0.0 | 1.0 | 0.00 | 0.00 | 0.33 | 86 | 1017.4 |
| 20260508133603 | 55 | 181 | 0.0 | 1.0 | 0.00 | 0.00 | 0.33 | 87 | 1017.3 |
| 20260508133547 | 55 | 157 | 0.0 | 1.0 | 0.00 | 0.00 | 0.33 | 87 | 1017.3 |
| 20260508133530 | 54 | 182 | 0.0 | 1.0 | 0.00 | 0.00 | 0.33 | 87 | 1017.4 |
| 20260508133514 | 54 | 183 | 0.0 | 1.0 | 0.00 | 0.00 | 0.33 | 87 | 1017.4 |
| 20260508133248 | 54 | 177 | 0.0 | 1.0 | 0.00 | 0.00 | 0.33 | 87 | 1017.4 |
| 20260508133230 | 54 | 97 | 0.0 | 1.0 | 0.00 | 0.00 | 0.33 | 87 | 1017.4 |
| 20260508132649 | 54 | 184 | 0.0 | 0.0 | 0.00 | 0.00 | 0.33 | 87 | 1017.3 |
| 20260508132625 | 54 | 186 | 0.0 | 1.0 | 0.00 | 0.00 | 0.33 | 88 | 1017.4 |
| 20260508132609 | 54 | 184 | 0.0 | 1.0 | 0.00 | 0.00 | 0.33 | 88 | 1017.5 |
| 20260508132332 | 54 | 169 | 0.0 | 1.0 | 0.00 | 0.00 | 0.33 | 87 | 1017.4 |
| 20260508132316 | 54 | 178 | 0.0 | 1.0 | 0.00 | 0.00 | 0.33 | 87 | 1017.3 |
| 20260508132049 | 55 | 178 | 0.0 | 1.0 | 0.00 | 0.00 | 0.33 | 87 | 1017.8 |
| 20260508131949 | 55 | 183 | 0.0 | 1.0 | 0.00 | 0.00 | 0.33 | 87 | 1017.2 |
| 20260508131925 | 55 | 183 | 0.0 | 1.0 | 0.00 | 0.00 | 0.33 | 87 | 1017.6 |
| 20260508131909 | 55 | 178 | 0.0 | 1.0 | 0.00 | 0.00 | 0.33 | 86 | 1017.6 |
| 20260508131613 | 55 | 150 | 0.0 | 0.0 | 0.00 | 0.00 | 0.33 | 85 | 1017.3 |
| 20260508131556 | 55 | 177 | 0.0 | 0.0 | 0.00 | 0.00 | 0.33 | 85 | 1017.5 |
| 20260508131236 | 55 | 186 | 0.0 | 0.0 | 0.00 | 0.00 | 0.33 | 85 | 1017.4 |
| 20260508131136 | 55 | 184 | 0.0 | 0.0 | 0.00 | 0.00 | 0.33 | 85 | 1017.7 |
| 20260508131120 | 55 | 161 | 0.0 | 0.0 | 0.00 | 0.00 | 0.33 | 85 | 1017.6 |
| 20260508131112 | 55 | 182 | 0.0 | 0.0 | 0.00 | 0.00 | 0.33 | 85 | 1017.6 |
| 20260508131056 | 55 | 183 | 0.0 | 0.0 | 0.00 | 0.00 | 0.33 | 85 | 1017.6 |
| 20260508130736 | 55 | 184 | 0.0 | 0.0 | 0.00 | 0.00 | 0.33 | 86 | 1017.6 |
| 20260508130636 | 55 | 184 | 0.0 | 0.0 | 0.00 | 0.00 | 0.33 | 86 | 1017.6 |
| 20260508130544 | 55 | 186 | 0.0 | 0.0 | 0.00 | 0.00 | 0.33 | 86 | 1017.7 |
| 20260508130537 | 55 | 188 | 0.0 | 0.0 | 0.00 | 0.00 | 0.33 | 86 | 1017.7 |
| 20260508130437 | 55 | 191 | 0.0 | 0.0 | 0.00 | 0.00 | 0.33 | 86 | 1017.6 |
| 20260508130337 | 55 | 192 | 0.0 | 0.0 | 0.00 | 0.00 | 0.33 | 86 | 1017.7 |
| 20260508130322 | 55 | 183 | 0.0 | 1.0 | 0.00 | 0.00 | 0.33 | 87 | 1017.4 |
| 20260508130312 | 55 | 218 | 0.0 | 0.0 | 0.00 | 0.00 | 0.33 | 86 | 1017.5 |
| 20260508130257 | 55 | 184 | 0.0 | 0.0 | 0.00 | 0.00 | 0.33 | 87 | 1017.6 |
| 20260508130240 | 55 | 183 | 0.0 | 0.0 | 0.00 | 0.00 | 0.33 | 87 | 1017.6 |
| 20260508130232 | 55 | 181 | 0.0 | 0.0 | 0.00 | 0.00 | 0.33 | 87 | 1017.6 |
| 20260508130216 | 55 | 183 | 0.0 | 0.0 | 0.00 | 0.00 | 0.33 | 87 | 1017.5 |
| 20260508125941 | 55 | 186 | 0.0 | 1.0 | 0.00 | 0.00 | 0.33 | 87 | 1017.3 |
| 20260508125925 | 55 | 186 | 0.0 | 1.0 | 0.00 | 0.00 | 0.33 | 87 | 1017.6 |
| 20260508125658 | 55 | 183 | 0.0 | 1.0 | 0.00 | 0.00 | 0.33 | 87 | 1017.4 |
| 20260508125336 | 55 | 190 | 0.0 | 1.0 | 0.00 | 0.00 | 0.33 | 88 | 1017.7 |
| 20260508125135 | 54 | 190 | 0.0 | 2.0 | 0.00 | 0.00 | 0.33 | 88 | 1017.6 |
| 20260508125045 | 54 | 190 | 0.0 | 2.0 | 0.00 | 0.00 | 0.33 | 88 | 1017.6 |
| 20260508125036 | 54 | 189 | 0.0 | 2.0 | 0.00 | 0.00 | 0.33 | 88 | 1017.6 |
| 20260508125020 | 54 | 176 | 0.0 | 2.0 | 0.00 | 0.00 | 0.33 | 89 | 1017.6 |
| 20260508125011 | 54 | 180 | 0.0 | 2.0 | 0.00 | 0.00 | 0.33 | 88 | 1017.3 |
| 20260508124955 | 54 | 185 | 0.0 | 2.0 | 0.00 | 0.00 | 0.33 | 89 | 1017.5 |
| 20260508124939 | 54 | 189 | 0.0 | 2.0 | 0.00 | 0.00 | 0.33 | 89 | 1017.4 |
| 20260508124924 | 54 | 172 | 0.0 | 2.0 | 0.00 | 0.00 | 0.33 | 89 | 1017.7 |
| 20260508124657 | 54 | 167 | 0.0 | 2.0 | 0.00 | 0.00 | 0.33 | 89 | 1017.6 |
| 20260508124337 | 54 | 179 | 0.0 | 2.0 | 0.00 | 0.00 | 0.33 | 89 | 1017.7 |
| 20260508124236 | 54 | 167 | 0.0 | 2.0 | 0.00 | 0.00 | 0.33 | 89 | 1017.5 |
| 20260508124136 | 54 | 180 | 0.0 | 0.0 | 0.00 | 0.00 | 0.33 | 89 | 1017.5 |
| 20260508124044 | 54 | 184 | 0.0 | 0.0 | 0.00 | 0.00 | 0.33 | 89 | 1017.6 |
| 20260508124036 | 54 | 184 | 0.0 | 0.0 | 0.00 | 0.00 | 0.33 | 89 | 1017.6 |
| 20260508123937 | 54 | 167 | 0.0 | 0.0 | 0.00 | 0.00 | 0.33 | 89 | 1017.6 |
| 20260508123836 | 54 | 188 | 0.0 | 0.0 | 0.00 | 0.00 | 0.33 | 89 | 1017.7 |
| 20260508123735 | 54 | 151 | 0.0 | 0.0 | 0.00 | 0.00 | 0.33 | 89 | 1017.6 |
| 20260508123636 | 54 | 182 | 0.0 | 0.0 | 0.00 | 0.00 | 0.33 | 89 | 1017.7 |
| 20260508123611 | 54 | 183 | 0.0 | 1.0 | 0.00 | 0.00 | 0.33 | 89 | 1017.4 |
| 20260508123601 | 54 | 163 | 0.0 | 1.0 | 0.00 | 0.00 | 0.33 | 89 | 1017.7 |
| 20260508123555 | 54 | 163 | 0.0 | 1.0 | 0.00 | 0.00 | 0.33 | 88 | 1017.7 |
| 20260508123539 | 54 | 182 | 0.0 | 1.0 | 0.00 | 0.00 | 0.33 | 89 | 1017.6 |
| 20260508123524 | 54 | 180 | 0.0 | 1.0 | 0.00 | 0.00 | 0.33 | 89 | 1017.3 |
| 20260508123508 | 54 | 190 | 0.0 | 1.0 | 0.00 | 0.00 | 0.33 | 89 | 1017.4 |
| 20260508123451 | 54 | 186 | 0.0 | 1.0 | 0.00 | 0.00 | 0.33 | 89 | 1017.8 |
| 20260508123222 | 54 | 182 | 0.0 | 1.0 | 0.00 | 0.00 | 0.33 | 89 | 1017.4 |
| 20260508123207 | 54 | 184 | 0.0 | 1.0 | 0.00 | 0.00 | 0.33 | 89 | 1017.7 |
| 20260508123151 | 54 | 183 | 0.0 | 1.0 | 0.00 | 0.00 | 0.33 | 89 | 1017.5 |
| 20260508123134 | 54 | 150 | 0.0 | 1.0 | 0.00 | 0.00 | 0.33 | 89 | 1017.5 |
| 20260508122858 | 54 | 180 | 0.0 | 0.0 | 0.00 | 0.00 | 0.33 | 89 | 1017.6 |
| 20260508122852 | 54 | 177 | 0.0 | 0.0 | 0.00 | 0.00 | 0.33 | 89 | 1017.6 |
| 20260508122615 | 54 | 181 | 0.0 | 0.0 | 0.00 | 0.00 | 0.33 | 88 | 1017.5 |
| 20260508122600 | 54 | 177 | 0.0 | 0.0 | 0.00 | 0.00 | 0.33 | 88 | 1017.5 |
| 20260508122544 | 54 | 187 | 0.0 | 0.0 | 0.00 | 0.00 | 0.33 | 88 | 1017.1 |
| 20260508122528 | 54 | 185 | 0.0 | 0.0 | 0.00 | 0.00 | 0.33 | 88 | 1017.5 |
| 20260508122040 | 54 | 189 | 0.0 | 0.0 | 0.00 | 0.00 | 0.33 | 88 | 1017.7 |
| 20260508121803 | 54 | 188 | 0.0 | 2.0 | 0.00 | 0.00 | 0.33 | 88 | 1017.5 |
| 20260508121746 | 54 | 190 | 0.0 | 2.0 | 0.00 | 0.00 | 0.33 | 88 | 1017.4 |
| 20260508121436 | 54 | 190 | 0.0 | 2.0 | 0.00 | 0.00 | 0.33 | 88 | 1017.5 |
| 20260508121336 | 54 | 189 | 0.0 | 2.0 | 0.00 | 0.00 | 0.33 | 89 | 1017.7 |
| 20260508121236 | 54 | 189 | 0.0 | 2.0 | 0.00 | 0.00 | 0.33 | 89 | 1017.4 |
| 20260508121142 | 54 | 185 | 0.0 | 0.0 | 0.00 | 0.00 | 0.33 | 90 | 1017.6 |
| 20260508121136 | 54 | 187 | 0.0 | 2.0 | 0.00 | 0.00 | 0.33 | 89 | 1017.4 |
| 20260508121125 | 54 | 180 | 0.0 | 0.0 | 0.00 | 0.00 | 0.33 | 90 | 1017.4 |
| 20260508121116 | 54 | 190 | 0.0 | 2.0 | 0.00 | 0.00 | 0.33 | 90 | 1017.5 |
| 20260508121108 | 54 | 190 | 0.0 | 2.0 | 0.00 | 0.00 | 0.33 | 90 | 1017.5 |
| 20260508121046 | 54 | 185 | 0.0 | 2.0 | 0.00 | 0.00 | 0.33 | 90 | 1017.8 |
| 20260508121030 | 54 | 177 | 0.0 | 2.0 | 0.00 | 0.00 | 0.33 | 89 | 1017.5 |
| 20260508120753 | 53 | 187 | 0.0 | 1.0 | 0.00 | 0.00 | 0.33 | 90 | 1017.5 |
| 20260508120731 | 53 | 185 | 0.0 | 1.0 | 0.00 | 0.00 | 0.33 | 90 | 1017.8 |
| 20260508120455 | 53 | 178 | 0.0 | 1.0 | 0.00 | 0.00 | 0.33 | 90 | 1017.5 |
| 20260508120439 | 53 | 182 | 0.0 | 1.0 | 0.00 | 0.00 | 0.33 | 90 | 1017.5 |
| 20260508120423 | 53 | 162 | 0.0 | 1.0 | 0.00 | 0.00 | 0.33 | 90 | 1017.6 |
| 20260508120407 | 54 | 170 | 0.0 | 1.0 | 0.00 | 0.00 | 0.33 | 90 | 1017.5 |
| 20260508120139 | 53 | 180 | 0.0 | 0.0 | 0.00 | 0.00 | 0.33 | 90 | 1017.5 |
| 20260508115915 | 54 | 187 | 0.0 | 0.0 | 0.00 | 0.00 | 0.33 | 90 | 1017.6 |
| 20260508115853 | 54 | 183 | 0.0 | 0.0 | 0.00 | 0.00 | 0.33 | 90 | 1017.5 |
| 20260508115838 | 54 | 163 | 0.0 | 0.0 | 0.00 | 0.00 | 0.33 | 90 | 1017.6 |
| 20260508115612 | 54 | 180 | 0.0 | 0.0 | 0.00 | 0.00 | 0.33 | 90 | 1017.4 |
| 20260508115556 | 54 | 184 | 0.0 | 0.0 | 0.00 | 0.00 | 0.33 | 91 | 1017.2 |
| 20260508115541 | 54 | 172 | 0.0 | 0.0 | 0.00 | 0.00 | 0.33 | 91 | 1017.4 |
| 20260508115525 | 54 | 182 | 0.0 | 0.0 | 0.00 | 0.00 | 0.33 | 90 | 1017.6 |
| 20260508115037 | 54 | 185 | 0.0 | 0.0 | 0.00 | 0.00 | 0.33 | 90 | 1017.6 |
| 20260508114938 | 54 | 166 | 0.0 | 0.0 | 0.00 | 0.00 | 0.33 | 90 | 1017.5 |
| 20260508114836 | 54 | 169 | 0.0 | 1.0 | 0.00 | 0.00 | 0.33 | 91 | 1017.4 |
| 20260508114736 | 54 | 185 | 0.0 | 1.0 | 0.00 | 0.00 | 0.33 | 92 | 1017.3 |
| 20260508114637 | 53 | 186 | 0.0 | 1.0 | 0.00 | 0.00 | 0.33 | 92 | 1017.4 |
| 20260508114544 | 53 | 185 | 0.0 | 1.0 | 0.00 | 0.00 | 0.33 | 92 | 1017.4 |
| 20260508114537 | 53 | 185 | 0.0 | 1.0 | 0.00 | 0.00 | 0.33 | 93 | 1017.4 |
| 20260508114436 | 53 | 184 | 0.0 | 1.0 | 0.00 | 0.00 | 0.33 | 93 | 1017.5 |
| 20260508114336 | 53 | 177 | 0.0 | 1.0 | 0.00 | 0.00 | 0.33 | 93 | 1017.3 |
| 20260508114236 | 53 | 182 | 0.0 | 1.0 | 0.00 | 0.00 | 0.33 | 94 | 1017.5 |
| 20260508114137 | 53 | 182 | 0.0 | 1.0 | 0.00 | 0.00 | 0.33 | 94 | 1017.3 |
| 20260508114046 | 52 | 186 | 0.0 | 1.0 | 0.00 | 0.00 | 0.33 | 95 | 1017.5 |
| 20260508114037 | 52 | 185 | 0.0 | 1.0 | 0.00 | 0.00 | 0.33 | 95 | 1017.5 |
| 20260508113936 | 52 | 186 | 0.0 | 1.0 | 0.00 | 0.00 | 0.33 | 95 | 1017.3 |
| 20260508113835 | 52 | 169 | 0.0 | 0.0 | 0.00 | 0.00 | 0.33 | 95 | 1017.5 |
| 20260508113748 | 53 | 133 | 0.0 | 0.0 | 0.00 | 0.00 | 0.33 | 95 | 1017.6 |
| 20260508113732 | 53 | 174 | 0.0 | 0.0 | 0.00 | 0.00 | 0.33 | 96 | 1017.5 |
| 20260508113657 | 53 | 187 | 0.0 | 0.0 | 0.00 | 0.00 | 0.33 | 97 | 1017.5 |
| 20260508113415 | 52 | 184 | 0.0 | 0.0 | 0.00 | 0.00 | 0.33 | 97 | 1017.4 |
| 20260508113358 | 52 | 180 | 0.0 | 0.0 | 0.00 | 0.00 | 0.33 | 97 | 1017.6 |
| 20260508113045 | 52 | 187 | 0.0 | 0.0 | 0.00 | 0.00 | 0.33 | 98 | 1017.3 |
| 20260508113036 | 52 | 186 | 0.0 | 0.0 | 0.00 | 0.00 | 0.33 | 98 | 1017.3 |
| 20260508112935 | 53 | 181 | 0.0 | 0.0 | 0.00 | 0.00 | 0.33 | 99 | 1017.4 |
| 20260508112836 | 53 | 157 | 0.0 | 0.0 | 0.00 | 0.00 | 0.33 | 99 | 1017.5 |
| 20260508112737 | 53 | 186 | 0.0 | 0.0 | 0.00 | 0.00 | 0.33 | 99 | 1017.3 |
| 20260508112637 | 52 | 179 | 0.0 | 0.0 | 0.00 | 0.00 | 0.33 | 100 | 1017.5 |
| 20260508112544 | 52 | 178 | 0.0 | 0.0 | 0.00 | 0.00 | 0.33 | 100 | 1017.5 |
| 20260508112536 | 52 | 177 | 0.0 | 0.0 | 0.00 | 0.00 | 0.33 | 100 | 1017.5 |
| 20260508112437 | 52 | 183 | 0.0 | 0.0 | 0.00 | 0.00 | 0.33 | 100 | 1017.6 |
| 20260508112336 | 52 | 186 | 0.0 | 1.0 | 0.00 | 0.00 | 0.33 | 100 | 1017.4 |
| 20260508112236 | 52 | 186 | 0.0 | 1.0 | 0.00 | 0.00 | 0.33 | 100 | 1017.4 |
| 20260508112147 | 51 | 145 | 0.0 | 1.0 | 0.00 | 0.00 | 0.33 | 100 | 1017.3 |
| 20260508112142 | 52 | 178 | 0.0 | 1.0 | 0.00 | 0.00 | 0.33 | 100 | 1017.4 |
| 20260508112127 | 52 | 185 | 0.0 | 1.0 | 0.00 | 0.00 | 0.33 | 100 | 1017.2 |
| 20260508112118 | 52 | 184 | 0.0 | 1.0 | 0.00 | 0.00 | 0.33 | 100 | 1017.2 |
| 20260508112101 | 52 | 172 | 0.0 | 1.0 | 0.00 | 0.00 | 0.33 | 100 | 1017.2 |
| 20260508111836 | 52 | 168 | 0.0 | 1.0 | 0.00 | 0.00 | 0.33 | 100 | 1017.5 |
| 20260508111821 | 51 | 180 | 0.0 | 1.0 | 0.00 | 0.00 | 0.33 | 100 | 1017.5 |
| 20260508111805 | 51 | 175 | 0.0 | 1.0 | 0.00 | 0.00 | 0.33 | 100 | 1017.4 |
| 20260508111535 | 51 | 145 | 0.0 | 1.0 | 0.00 | 0.00 | 0.33 | 100 | 1017.3 |
| 20260508111436 | 52 | 100 | 0.0 | 1.0 | 0.00 | 0.00 | 0.33 | 100 | 1017.4 |
| 20260508111400 | 51 | 186 | 0.0 | 1.0 | 0.00 | 0.00 | 0.33 | 100 | 1017.3 |
| 20260508111343 | 51 | 185 | 0.0 | 1.0 | 0.00 | 0.00 | 0.33 | 100 | 1017.2 |
| 20260508111044 | 51 | 153 | 0.0 | 1.0 | 0.00 | 0.00 | 0.33 | 100 | 1017.2 |
| 20260508111024 | 51 | 168 | 0.0 | 0.0 | 0.00 | 0.00 | 0.33 | 100 | 1017.3 |
| 20260508110924 | 51 | 188 | 0.0 | 0.0 | 0.00 | 0.00 | 0.33 | 100 | 1017.2 |
| 20260508110824 | 51 | 181 | 0.0 | 0.0 | 0.00 | 0.00 | 0.33 | 100 | 1017.3 |
| 20260508110724 | 51 | 170 | 0.0 | 0.0 | 0.00 | 0.00 | 0.33 | 100 | 1017.4 |
| 20260508110624 | 51 | 176 | 0.0 | 0.0 | 0.00 | 0.00 | 0.33 | 100 | 1017.4 |
| 20260508110544 | 51 | 182 | 0.0 | 0.0 | 0.00 | 0.00 | 0.33 | 100 | 1017.4 |
| 20260508110524 | 51 | 178 | 0.0 | 0.0 | 0.00 | 0.00 | 0.33 | 100 | 1017.3 |
| 20260508110423 | 51 | 175 | 0.0 | 0.0 | 0.00 | 0.00 | 0.33 | 100 | 1017.4 |
| 20260508110324 | 51 | 135 | 0.0 | 0.0 | 0.00 | 0.00 | 0.33 | 100 | 1017.4 |
| 20260508110225 | 51 | 105 | 0.0 | 1.0 | 0.00 | 0.00 | 0.33 | 100 | 1017.2 |
| 20260508110124 | 51 | 189 | 0.0 | 1.0 | 0.00 | 0.00 | 0.33 | 100 | 1017.4 |
| 20260508110058 | 51 | 185 | 0.0 | 1.0 | 0.00 | 0.00 | 0.33 | 100 | 1017.4 |
| 20260508110013 | 51 | 184 | 0.0 | 1.0 | 0.00 | 0.00 | 0.33 | 100 | 1017.4 |
| 20260508105912 | 51 | 155 | 0.0 | 1.0 | 0.00 | 0.00 | 0.33 | 100 | 1017.4 |
| 20260508105857 | 51 | 178 | 0.0 | 1.0 | 0.00 | 0.00 | 0.33 | 100 | 1017.4 |
| 20260508105848 | 51 | 173 | 0.0 | 1.0 | 0.00 | 0.00 | 0.33 | 100 | 1017.2 |
| 20260508105832 | 51 | 171 | 0.0 | 1.0 | 0.00 | 0.00 | 0.33 | 100 | 1017.2 |
| 20260508105816 | 51 | 180 | 0.0 | 1.0 | 0.00 | 0.00 | 0.33 | 100 | 1017.4 |
| 20260508105549 | 51 | 173 | 0.0 | 1.0 | 0.00 | 0.00 | 0.33 | 100 | 1017.3 |
| 20260508105533 | 51 | 182 | 0.0 | 1.0 | 0.00 | 0.00 | 0.33 | 100 | 1017.3 |
| 20260508105212 | 51 | 164 | 0.0 | 1.0 | 0.00 | 0.00 | 0.33 | 100 | 1017.1 |
| 20260508105112 | 51 | 122 | 0.0 | 1.0 | 0.00 | 0.00 | 0.33 | 100 | 1017.3 |
| 20260508105044 | 51 | 172 | 0.0 | 1.0 | 0.00 | 0.00 | 0.33 | 100 | 1017.3 |
| 20260508105013 | 51 | 139 | 0.0 | 1.0 | 0.00 | 0.00 | 0.33 | 100 | 1017.1 |
| 20260508104912 | 51 | 182 | 0.0 | 1.0 | 0.00 | 0.00 | 0.33 | 100 | 1017.2 |
| 20260508104813 | 51 | 170 | 0.0 | 0.0 | 0.00 | 0.00 | 0.33 | 100 | 1017.6 |
| 20260508104755 | 51 | 168 | 0.0 | 0.0 | 0.00 | 0.00 | 0.33 | 100 | 1017.4 |
| 20260508104740 | 51 | 172 | 0.0 | 0.0 | 0.00 | 0.00 | 0.33 | 100 | 1017.5 |
| 20260508104727 | 51 | 183 | 0.0 | 0.0 | 0.00 | 0.00 | 0.33 | 100 | 1017.5 |
| 20260508104413 | 51 | 186 | 0.0 | 0.0 | 0.00 | 0.00 | 0.33 | 100 | 1017.4 |
| 20260508104312 | 51 | 186 | 0.0 | 0.0 | 0.00 | 0.00 | 0.33 | 100 | 1017.6 |
| 20260508104212 | 51 | 186 | 0.0 | 0.0 | 0.00 | 0.00 | 0.33 | 100 | 1017.2 |
| 20260508104125 | 51 | 163 | 0.0 | 0.0 | 0.00 | 0.00 | 0.33 | 100 | 1017.4 |
| 20260508104111 | 51 | 186 | 0.0 | 0.0 | 0.00 | 0.00 | 0.33 | 100 | 1017.4 |
| 20260508104100 | 51 | 185 | 0.0 | 0.0 | 0.00 | 0.00 | 0.33 | 100 | 1017.4 |
| 20260508104045 | 51 | 184 | 0.0 | 0.0 | 0.00 | 0.00 | 0.33 | 100 | 1017.3 |
| 20260508104029 | 51 | 185 | 0.0 | 0.0 | 0.00 | 0.00 | 0.33 | 100 | 1017.4 |
| 20260508104014 | 51 | 184 | 0.0 | 0.0 | 0.00 | 0.00 | 0.33 | 100 | 1017.2 |
| 20260508103741 | 51 | 183 | 0.0 | 0.0 | 0.00 | 0.00 | 0.33 | 100 | 1017.4 |
| 20260508103732 | 51 | 172 | 0.0 | 0.0 | 0.00 | 0.00 | 0.33 | 100 | 1017.4 |
| 20260508103456 | 51 | 166 | 0.0 | 0.0 | 0.00 | 0.00 | 0.33 | 100 | 1017.2 |
| 20260508103220 | 51 | 169 | 0.0 | 0.0 | 0.00 | 0.00 | 0.33 | 100 | 1017.5 |
| 20260508103207 | 51 | 181 | 0.0 | 0.0 | 0.00 | 0.00 | 0.33 | 100 | 1017.5 |
| 20260508103156 | 51 | 180 | 0.0 | 0.0 | 0.00 | 0.00 | 0.33 | 100 | 1017.2 |
| 20260508102927 | 51 | 185 | 0.0 | 0.0 | 0.00 | 0.00 | 0.33 | 100 | 1017.3 |
| 20260508102911 | 51 | 185 | 0.0 | 0.0 | 0.00 | 0.00 | 0.33 | 100 | 1017.2 |
| 20260508102856 | 51 | 183 | 0.0 | 0.0 | 0.00 | 0.00 | 0.33 | 100 | 1017.4 |
| 20260508102632 | 51 | 184 | 0.0 | 0.0 | 0.00 | 0.00 | 0.33 | 100 | 1017.3 |
| 20260508102625 | 51 | 182 | 0.0 | 0.0 | 0.00 | 0.00 | 0.33 | 100 | 1017.4 |
| 20260508102612 | 51 | 181 | 0.0 | 1.0 | 0.00 | 0.00 | 0.33 | 100 | 1017.4 |
| 20260508102603 | 51 | 178 | 0.0 | 1.0 | 0.00 | 0.00 | 0.33 | 100 | 1017.2 |
| 20260508102548 | 51 | 186 | 0.0 | 1.0 | 0.00 | 0.00 | 0.33 | 100 | 1017.5 |
| 20260508102532 | 51 | 187 | 0.0 | 1.0 | 0.00 | 0.00 | 0.33 | 100 | 1017.3 |
| 20260508102516 | 51 | 183 | 0.0 | 1.0 | 0.00 | 0.00 | 0.33 | 100 | 1017.4 |
| 20260508102501 | 50 | 183 | 0.0 | 1.0 | 0.00 | 0.00 | 0.33 | 100 | 1017.3 |
| 20260508102447 | 50 | 181 | 0.0 | 1.0 | 0.00 | 0.00 | 0.33 | 100 | 1017.3 |
| 20260508102436 | 50 | 180 | 0.0 | 1.0 | 0.00 | 0.00 | 0.33 | 100 | 1017.1 |
| 20260508102421 | 50 | 179 | 0.0 | 1.0 | 0.00 | 0.00 | 0.33 | 100 | 1017.4 |
| 20260508102405 | 50 | 124 | 0.0 | 1.0 | 0.00 | 0.00 | 0.33 | 100 | 1017.2 |
| 20260508102350 | 50 | 183 | 0.0 | 1.0 | 0.00 | 0.00 | 0.33 | 100 | 1017.2 |
| 20260508102334 | 50 | 189 | 0.0 | 1.0 | 0.00 | 0.00 | 0.33 | 100 | 1017.4 |
| 20260508102321 | 50 | 182 | 0.0 | 1.0 | 0.00 | 0.00 | 0.33 | 100 | 1017.4 |
| 20260508102052 | 51 | 179 | 0.0 | 1.0 | 0.00 | 0.00 | 0.33 | 100 | 1017.3 |
| 20260508102035 | 51 | 163 | 0.0 | 1.0 | 0.00 | 0.00 | 0.33 | 100 | 1017.3 |
| 20260508101326 | 51 | 166 | 0.0 | 1.0 | 0.00 | 0.00 | 0.33 | 100 | 1017.1 |
| 20260508101050 | 52 | 161 | 0.0 | 0.0 | 0.00 | 0.00 | 0.33 | 100 | 1017.4 |
| 20260508101034 | 52 | 132 | 0.0 | 0.0 | 0.00 | 0.00 | 0.33 | 100 | 1017.2 |
| 20260508100801 | 52 | 187 | 0.0 | 0.0 | 0.00 | 0.00 | 0.33 | 100 | 1017.3 |
| 20260508100532 | 51 | 186 | 0.0 | 0.0 | 0.00 | 0.00 | 0.33 | 100 | 1017.2 |
| 20260508100516 | 51 | 186 | 0.0 | 0.0 | 0.00 | 0.00 | 0.33 | 100 | 1017.4 |
| 20260508100500 | 51 | 179 | 0.0 | 0.0 | 0.00 | 0.00 | 0.33 | 100 | 1017.1 |
| 20260508100444 | 51 | 182 | 0.0 | 0.0 | 0.00 | 0.00 | 0.33 | 100 | 1017.3 |
| 20260508095912 | 51 | 185 | 0.0 | 0.0 | 0.00 | 0.00 | 0.33 | 100 | 1017.1 |
| 20260508095812 | 51 | 187 | 0.0 | 0.0 | 0.00 | 0.00 | 0.33 | 100 | 1017.2 |
| 20260508095712 | 51 | 184 | 0.0 | 0.0 | 0.00 | 0.00 | 0.33 | 100 | 1017.1 |
| 20260508095613 | 51 | 155 | 0.0 | 0.0 | 0.00 | 0.00 | 0.33 | 100 | 1017.3 |
| 20260508095544 | 51 | 169 | 0.0 | 0.0 | 0.00 | 0.00 | 0.33 | 100 | 1017.3 |
| 20260508095512 | 51 | 186 | 0.0 | 0.0 | 0.00 | 0.00 | 0.33 | 100 | 1017.3 |
| 20260508095447 | 51 | 183 | 0.0 | 0.0 | 0.00 | 0.00 | 0.33 | 100 | 1017.2 |
| 20260508095432 | 51 | 161 | 0.0 | 1.0 | 0.00 | 0.00 | 0.33 | 100 | 1017.3 |
| 20260508095156 | 51 | 189 | 0.0 | 1.0 | 0.00 | 0.00 | 0.33 | 100 | 1017.4 |
| 20260508095147 | 50 | 181 | 0.0 | 1.0 | 0.00 | 0.00 | 0.33 | 100 | 1017.4 |
| 20260508095133 | 50 | 179 | 0.0 | 1.0 | 0.00 | 0.00 | 0.33 | 100 | 1017.4 |
| 20260508095122 | 51 | 164 | 0.0 | 1.0 | 0.00 | 0.00 | 0.33 | 100 | 1017.2 |
| 20260508095107 | 51 | 150 | 0.0 | 1.0 | 0.00 | 0.00 | 0.33 | 100 | 1017.5 |
| 20260508094831 | 51 | 186 | 0.0 | 1.0 | 0.00 | 0.00 | 0.33 | 100 | 1017.4 |
| 20260508094816 | 51 | 159 | 0.0 | 1.0 | 0.00 | 0.00 | 0.33 | 100 | 1017.4 |
| 20260508094548 | 50 | 192 | 0.0 | 2.0 | 0.00 | 0.00 | 0.33 | 100 | 1017.3 |
| 20260508094533 | 50 | 196 | 0.0 | 2.0 | 0.00 | 0.00 | 0.33 | 100 | 1017.4 |
| 20260508094517 | 50 | 174 | 0.0 | 2.0 | 0.00 | 0.00 | 0.33 | 100 | 1017.2 |
| 20260508094501 | 50 | 183 | 0.0 | 2.0 | 0.00 | 0.00 | 0.33 | 100 | 1017.3 |
| 20260508094228 | 50 | 130 | 0.0 | 2.0 | 0.00 | 0.00 | 0.33 | 100 | 1017.4 |
| 20260508093913 | 50 | 185 | 0.0 | 2.0 | 0.00 | 0.00 | 0.33 | 100 | 1017.4 |
| 20260508093840 | 50 | 173 | 0.0 | 2.0 | 0.00 | 0.00 | 0.33 | 100 | 1017.3 |
| 20260508093825 | 50 | 179 | 0.0 | 2.0 | 0.00 | 0.00 | 0.33 | 100 | 1017.4 |
| 20260508093809 | 51 | 175 | 0.0 | 2.0 | 0.00 | 0.00 | 0.33 | 100 | 1017.2 |
| 20260508093756 | 51 | 172 | 0.0 | 1.0 | 0.00 | 0.00 | 0.33 | 100 | 1017.2 |
| 20260508093748 | 51 | 188 | 0.0 | 1.0 | 0.00 | 0.00 | 0.33 | 100 | 1017.2 |
| 20260508093733 | 51 | 187 | 0.0 | 1.0 | 0.00 | 0.00 | 0.33 | 100 | 1017.4 |
| 20260508093237 | 51 | 188 | 0.0 | 0.0 | 0.00 | 0.00 | 0.33 | 100 | 1017.4 |
| 20260508093220 | 51 | 188 | 0.0 | 0.0 | 0.00 | 0.00 | 0.33 | 100 | 1017.4 |
| 20260508093208 | 51 | 188 | 0.0 | 0.0 | 0.00 | 0.00 | 0.33 | 100 | 1017.2 |
| 20260508093153 | 51 | 187 | 0.0 | 0.0 | 0.00 | 0.00 | 0.33 | 100 | 1017.3 |
| 20260508092612 | 51 | 186 | 0.0 | 0.0 | 0.00 | 0.00 | 0.33 | 100 | 1017.2 |
| 20260508092532 | 51 | 187 | 0.0 | 0.0 | 0.00 | 0.00 | 0.33 | 100 | 1017.2 |
| 20260508092512 | 51 | 181 | 0.0 | 0.0 | 0.00 | 0.00 | 0.33 | 100 | 1017.1 |
| 20260508092450 | 51 | 185 | 0.0 | 0.0 | 0.00 | 0.00 | 0.33 | 100 | 1017.2 |
| 20260508092435 | 51 | 177 | 0.0 | 0.0 | 0.00 | 0.00 | 0.33 | 100 | 1017.2 |
| 20260508092145 | 51 | 182 | 0.0 | 0.0 | 0.00 | 0.00 | 0.33 | 100 | 1017.2 |
| 20260508092128 | 51 | 175 | 0.0 | 0.0 | 0.00 | 0.00 | 0.33 | 100 | 1017.2 |
| 20260508092119 | 51 | 116 | 0.0 | 0.0 | 0.00 | 0.00 | 0.33 | 100 | 1017.3 |
| 20260508091748 | 51 | 177 | 0.0 | 0.0 | 0.00 | 0.00 | 0.33 | 100 | 1017.3 |
| 20260508091648 | 51 | 182 | 0.0 | 0.0 | 0.00 | 0.00 | 0.33 | 100 | 1017.2 |
| 20260508091532 | 51 | 177 | 0.0 | 0.0 | 0.00 | 0.00 | 0.33 | 100 | 1017.3 |
| 20260508091512 | 51 | 163 | 0.0 | 0.0 | 0.00 | 0.00 | 0.33 | 100 | 1017.1 |
| 20260508091456 | 51 | 179 | 0.0 | 0.0 | 0.00 | 0.00 | 0.33 | 100 | 1017.3 |
| 20260508091136 | 51 | 148 | 0.0 | 0.0 | 0.00 | 0.00 | 0.33 | 100 | 1017.2 |
| 20260508091036 | 51 | 184 | 0.0 | 0.0 | 0.00 | 0.00 | 0.33 | 100 | 1017.3 |
| 20260508090936 | 51 | 185 | 0.0 | 0.0 | 0.00 | 0.00 | 0.33 | 100 | 1017.4 |
| 20260508090836 | 51 | 185 | 0.0 | 0.0 | 0.00 | 0.00 | 0.33 | 100 | 1017.5 |
| 20260508090737 | 51 | 181 | 0.0 | 0.0 | 0.00 | 0.00 | 0.33 | 100 | 1017.1 |
| 20260508090718 | 51 | 182 | 0.0 | 0.0 | 0.00 | 0.00 | 0.33 | 100 | 1017.2 |
| 20260508090656 | 51 | 187 | 0.0 | 0.0 | 0.00 | 0.00 | 0.33 | 100 | 1017.2 |
| 20260508090336 | 51 | 188 | 0.0 | 0.0 | 0.00 | 0.00 | 0.33 | 100 | 1017.2 |
| 20260508090235 | 51 | 187 | 0.0 | 0.0 | 0.00 | 0.00 | 0.33 | 100 | 1017.4 |
| 20260508090151 | 51 | 187 | 0.0 | 0.0 | 0.00 | 0.00 | 0.33 | 100 | 1017.3 |
| 20260508090126 | 51 | 187 | 0.0 | 0.0 | 0.00 | 0.00 | 0.33 | 100 | 1017.1 |
| 20260508090057 | 51 | 187 | 0.0 | 0.0 | 0.00 | 0.00 | 0.33 | 100 | 1017.2 |
| 20260508085736 | 51 | 183 | 0.0 | 0.0 | 0.00 | 0.00 | 0.33 | 100 | 1017.2 |
| 20260508085635 | 50 | 181 | 0.0 | 0.0 | 0.00 | 0.00 | 0.33 | 100 | 1017.1 |
| 20260508085537 | 50 | 179 | 0.0 | 0.0 | 0.00 | 0.00 | 0.33 | 100 | 1017.2 |
| 20260508085436 | 51 | 170 | 0.0 | 0.0 | 0.00 | 0.00 | 0.33 | 100 | 1017.0 |
| 20260508085412 | 51 | 184 | 0.0 | 0.0 | 0.00 | 0.00 | 0.33 | 100 | 1017.0 |
| 20260508085356 | 51 | 187 | 0.0 | 0.0 | 0.00 | 0.00 | 0.33 | 100 | 1017.1 |
| 20260508085035 | 50 | 186 | 0.0 | 0.0 | 0.00 | 0.00 | 0.33 | 100 | 1017.1 |
| 20260508084717 | 50 | 162 | 0.0 | 0.0 | 0.00 | 0.21 | 0.33 | 100 | 1017.0 |
| 20260508084618 | 50 | 188 | 0.0 | 0.0 | 0.00 | 0.21 | 0.33 | 100 | 1017.1 |
| 20260508084600 | 50 | 188 | 0.0 | 0.0 | 0.00 | 0.21 | 0.33 | 100 | 1017.1 |
| 20260508084552 | 50 | 188 | 0.0 | 0.0 | 0.00 | 0.21 | 0.33 | 100 | 1017.1 |
| 20260508084536 | 50 | 186 | 0.0 | 0.0 | 0.00 | 0.21 | 0.33 | 100 | 1016.9 |
| 20260508084216 | 50 | 185 | 0.0 | 0.0 | 0.00 | 0.21 | 0.33 | 100 | 1017.1 |
| 20260508084151 | 50 | 185 | 0.0 | 0.0 | 0.00 | 0.21 | 0.33 | 100 | 1017.0 |
| 20260508084133 | 50 | 184 | 0.0 | 0.0 | 0.00 | 0.21 | 0.33 | 100 | 1017.0 |
| 20260508084125 | 50 | 184 | 0.0 | 0.0 | 0.00 | 0.21 | 0.33 | 100 | 1017.0 |
| 20260508084110 | 50 | 184 | 0.0 | 0.0 | 0.00 | 0.21 | 0.33 | 100 | 1017.0 |
| 20260508084055 | 50 | 183 | 0.0 | 0.0 | 0.00 | 0.21 | 0.33 | 100 | 1017.2 |
| 20260508083820 | 50 | 187 | 0.0 | 0.0 | 0.00 | 0.21 | 0.33 | 100 | 1017.2 |
| 20260508083805 | 50 | 187 | 0.0 | 0.0 | 0.00 | 0.21 | 0.33 | 100 | 1017.2 |
| 20260508083538 | 50 | 187 | 0.0 | 0.0 | 0.00 | 0.21 | 0.33 | 100 | 1017.0 |
| 20260508083217 | 50 | 188 | 0.0 | 0.0 | 0.00 | 0.21 | 0.33 | 100 | 1017.1 |
| 20260508083116 | 50 | 188 | 0.0 | 0.0 | 0.00 | 0.21 | 0.33 | 100 | 1017.2 |
| 20260508083036 | 50 | 188 | 0.0 | 0.0 | 0.00 | 0.21 | 0.33 | 100 | 1017.2 |
| 20260508083016 | 50 | 188 | 0.0 | 0.0 | 0.00 | 0.21 | 0.33 | 100 | 1017.2 |
| 20260508082917 | 50 | 188 | 0.0 | 0.0 | 0.00 | 0.21 | 0.33 | 100 | 1016.9 |
| 20260508082817 | 50 | 188 | 0.0 | 0.0 | 0.00 | 0.21 | 0.33 | 100 | 1017.2 |
| 20260508082717 | 50 | 188 | 0.0 | 0.0 | 0.00 | 0.21 | 0.33 | 100 | 1017.1 |
| 20260508082659 | 50 | 187 | 0.0 | 0.0 | 0.00 | 0.21 | 0.33 | 100 | 1017.1 |
| 20260508082644 | 50 | 187 | 0.0 | 0.0 | 0.00 | 0.21 | 0.33 | 100 | 1017.1 |
| 20260508082636 | 50 | 187 | 0.0 | 0.0 | 0.00 | 0.21 | 0.33 | 100 | 1017.3 |
| 20260508082316 | 50 | 188 | 0.0 | 0.0 | 0.00 | 0.21 | 0.33 | 100 | 1017.0 |
| 20260508082217 | 50 | 188 | 0.0 | 0.0 | 0.00 | 0.21 | 0.33 | 100 | 1017.1 |